GFSSGP_250_rhum_057.txt.gz
RH
52 45 40 40 41 46 40 29 16 16 17 15 15 15 15 14 15 18 20 20 19 19 17 15 13 12 12 13 14 19 22 20 20 19 18 19 17 20 20 21 24 22 21 22 23 24 23 26 27
59 52 46 46 45 54 54 52 51 36 22 17 12 13 15 14 14 14 18 17 16 14 14 14 13 12 10 10 11 11 12 16 14 13 14 17 19 23 26 26 26 25 26 25 24 23 23 25 27
76 63 57 54 52 64 69 72 66 67 48 26 18 15 15 16 14 14 12 12 15 15 14 13 13 11 10 9 11 12 11 10 9 9 10 10 12 14 20 21 22 26 28 28 29 30 29 26 24
88 70 64 66 82 81 78 70 73 75 57 45 34 21 21 18 14 13 13 13 13 13 15 14 14 14 13 12 13 12 11 10 10 10 10 10 12 14 14 18 22 22 27 28 28 30 35 36 34
100 88 78 77 100 100 98 74 80 64 50 46 39 32 25 21 19 18 17 17 15 15 14 14 15 15 14 14 12 12 11 11 12 12 12 12 12 12 14 14 16 18 18 18 18 20 20 20 28
83 95 97 100 100 100 100 79 77 66 55 47 42 35 32 33 33 27 24 22 20 17 16 16 15 14 14 13 12 12 12 12 12 13 14 14 13 15 18 19 20 22 24 23 21 23 24 23 24
47 62 80 100 100 100 98 75 78 76 69 65 56 45 38 39 37 34 27 23 23 21 19 18 17 16 16 16 14 15 15 15 15 16 16 16 16 17 18 20 20 21 20 20 22 26 30 28 30
46 46 48 69 95 100 100 81 77 79 84 84 65 48 46 54 46 35 29 23 21 20 20 20 20 19 17 17 17 17 16 18 18 19 20 20 20 19 20 22 21 22 20 21 24 24 29 43 44
48 47 53 68 95 92 72 74 75 78 82 81 81 66 62 82 81 65 44 30 25 24 23 22 21 21 21 21 20 20 22 21 22 24 23 21 21 21 21 20 20 21 20 19 20 30 38 40 41
66 58 56 84 77 68 56 59 63 62 59 63 81 79 80 88 77 64 57 46 34 28 24 25 24 24 26 24 26 26 27 28 26 26 23 23 21 19 18 18 19 19 23 26 29 40 38 30 33
82 74 88 76 88 74 53 51 54 55 53 55 57 51 47 53 52 46 41 39 39 35 31 27 30 30 28 24 25 29 27 28 25 24 24 23 23 23 22 24 25 26 28 33 35 29 29 26 24
100 100 100 100 88 80 52 56 49 49 57 63 59 53 43 37 36 45 46 39 33 34 36 34 32 31 31 27 30 32 32 29 27 26 25 26 26 28 31 28 31 31 33 32 26 20 19 17 17
100 100 100 100 100 96 74 60 77 73 69 64 62 58 52 45 42 42 42 41 40 41 40 42 45 43 38 38 38 37 33 31 31 32 34 30 32 34 33 35 34 34 28 23 21 18 17 16 14
100 100 100 100 100 100 100 87 72 92 79 63 65 69 60 53 54 57 53 46 38 34 41 41 46 47 43 44 45 43 40 37 39 41 41 42 44 49 46 40 34 32 26 21 22 20 17 16 20
100 100 100 100 100 100 100 100 95 90 76 59 50 57 74 79 78 89 70 56 47 47 50 56 40 44 48 54 51 42 44 44 45 48 49 53 52 50 47 43 34 34 30 27 28 25 22 20 21
100 100 100 100 100 100 100 100 100 98 80 79 66 63 82 100 100 100 85 68 57 58 61 52 49 57 71 64 52 55 58 66 72 70 77 69 68 60 51 52 47 39 36 31 30 29 26 25 26
100 100 100 100 100 100 100 100 100 100 100 92 88 94 98 100 100 100 99 72 61 70 80 76 80 80 77 76 67 63 82 86 73 74 67 72 66 68 63 66 57 51 62 62 64 54 42 38 36
100 100 100 100 100 100 100 100 100 100 100 100 100 100 100 100 100 100 93 91 82 85 94 94 91 84 72 65 66 75 78 82 71 71 71 62 48 51 69 76 78 79 69 72 72 59 52 48 48
100 100 100 100 100 100 100 100 100 100 100 100 100 100 100 100 100 100 100 98 98 96 89 94 87 83 73 64 64 52 51 64 57 64 60 66 59 53 73 68 80 91 91 86 98 89 84 76 73
99 100 100 100 100 100 100 100 100 100 100 100 100 100 100 100 100 100 100 100 100 99 96 90 87 83 83 80 80 71 61 60 62 63 75 75 80 70 82 78 82 92 92 89 82 77 77 74 71
79 92 100 100 100 100 100 100 100 100 100 100 100 100 100 100 100 100 100 100 100 100 99 92 88 83 84 100 100 96 84 73 80 79 73 84 77 56 50 53 72 79 68 64 78 82 62 64 61
78 84 87 100 100 100 100 100 100 100 100 100 100 100 100 100 100 100 100 100 100 100 100 96 88 84 96 100 100 100 92 88 81 81 76 72 69 73 78 68 70 98 95 100 100 100 94 72 70
98 88 86 82 100 100 100 100 100 100 100 100 100 100 100 100 100 100 100 100 100 100 100 100 100 99 89 87 93 95 85 85 100 100 92 82 71 77 88 87 66 87 100 100 100 99 95 80 73
100 100 94 87 80 97 100 100 100 100 100 100 100 100 100 100 100 100 100 100 100 100 100 100 100 100 100 100 96 100 100 100 100 100 100 96 83 79 85 84 73 88 95 84 88 96 87 86 89
100 95 87 82 78 86 98 100 100 100 100 100 100 100 100 100 94 90 93 93 92 92 98 100 100 100 100 100 100 89 80 83 99 100 98 99 100 95 82 71 70 79 88 82 82 91 88 88 79
91 86 90 88 96 97 95 91 100 100 100 100 98 100 100 100 100 96 89 86 87 90 90 90 92 89 87 90 93 94 99 91 89 91 96 91 84 85 76 73 71 71 82 79 69 81 88 95 78
95 100 96 100 100 99 100 99 90 98 100 100 100 96 96 100 100 99 94 96 98 95 90 86 84 83 81 77 75 74 71 69 70 73 75 82 82 77 74 68 68 59 61 74 78 85 82 76 84
98 100 100 100 99 100 100 94 90 87 78 86 93 97 92 83 81 88 96 99 100 100 99 96 87 83 82 77 76 71 69 78 85 79 67 61 60 63 64 62 69 73 72 84 81 76 88 99 100
95 99 100 93 96 100 100 86 77 72 62 66 70 70 63 64 68 73 76 74 68 64 63 65 63 58 52 49 46 45 47 48 49 52 51 53 59 62 66 68 79 83 93 79 70 98 98 99 100
98 100 100 96 96 100 99 88 78 66 59 51 50 48 57 64 70 60 53 57 55 51 49 48 42 32 27 24 21 21 26 30 37 47 52 58 68 64 71 81 82 76 67 64 90 100 100 100 100

GFSSGP_250_rhum_060.txt.gz
RH
57 68 40 32 25 21 22 19 18 18 18 18 17 18 20 21 20 20 21 24 26 26 25 27 26 22 21 21 20 17 16 16 17 20 21 20 20 19 19 18 18 18 22 23 19 20 20 21 22
58 72 70 38 29 30 28 22 22 16 16 16 15 15 17 20 20 19 18 18 20 22 21 20 23 21 19 16 13 12 13 12 12 12 13 15 15 13 12 16 18 22 25 28 27 26 27 27 29
72 73 81 52 29 37 39 36 35 33 22 17 14 13 12 16 18 18 17 17 15 16 18 18 18 17 15 14 14 13 12 11 11 13 13 12 12 12 12 12 12 13 15 17 23 25 26 26 29
85 81 78 70 42 47 41 38 37 43 42 36 26 16 18 18 20 19 18 16 16 14 13 14 16 16 16 15 15 14 12 12 12 14 13 11 11 12 12 12 12 12 12 15 17 17 17 18 20
90 84 76 83 56 64 62 51 41 43 42 44 44 46 44 46 22 17 20 19 18 17 16 14 13 12 13 14 14 14 15 15 15 14 13 12 12 12 12 12 12 12 12 14 15 16 16 17 18
83 80 84 97 98 87 63 56 51 49 47 45 52 57 63 61 48 31 24 25 27 24 20 17 15 14 14 14 14 14 13 13 12 13 12 12 12 12 13 14 15 16 16 16 16 18 18 18 18
58 94 92 100 100 99 78 58 55 57 54 56 59 60 73 68 50 43 36 29 25 24 23 21 18 18 17 16 15 15 14 14 13 13 13 14 14 14 15 15 16 17 18 18 18 18 18 19 19
48 60 97 100 100 100 100 73 55 62 77 78 86 72 85 65 46 44 40 35 31 28 27 27 25 23 22 20 18 16 16 16 15 14 14 16 16 17 18 18 19 19 21 21 19 17 17 17 18
65 48 56 99 100 100 100 94 69 73 98 94 93 93 94 76 63 56 58 51 40 36 34 31 28 25 23 21 19 19 19 18 18 18 18 16 16 19 22 22 22 20 20 20 19 18 19 17 17
64 69 79 91 100 100 92 89 83 82 100 100 85 100 94 87 81 80 77 61 49 47 53 60 47 32 28 24 22 22 22 22 22 22 22 21 21 21 21 23 22 22 20 19 17 18 18 19 22
99 83 98 90 92 90 81 82 81 88 100 100 98 100 96 88 95 91 85 82 64 57 62 69 70 61 52 43 34 28 25 26 26 26 26 23 24 24 24 22 20 20 20 20 20 19 23 26 30
100 100 100 100 98 93 76 70 67 70 87 98 98 100 94 92 85 78 71 77 78 73 78 70 58 46 38 35 33 30 30 28 30 33 32 28 27 29 26 23 23 24 23 24 26 28 29 32 30
100 100 100 100 100 95 86 74 69 65 65 66 77 83 88 79 72 64 59 56 53 51 45 42 40 37 34 32 31 31 30 28 27 30 34 34 30 34 30 25 26 30 29 30 36 33 38 35 34
100 100 100 100 100 100 91 71 65 98 83 68 68 69 69 72 64 59 59 59 60 54 48 42 40 35 31 30 31 32 34 32 30 32 30 31 38 35 32 35 35 36 39 42 47 45 44 40 37
100 100 100 100 100 100 100 98 88 84 74 75 72 75 72 62 57 70 66 78 79 68 49 44 41 44 45 40 46 43 46 36 37 39 43 46 43 43 49 51 50 55 58 58 62 56 49 41 43
100 100 100 100 100 100 100 100 100 100 87 80 72 70 88 95 100 99 90 90 86 72 62 52 54 57 54 53 54 58 64 66 65 61 59 57 59 69 76 71 70 68 62 56 50 52 56 51 52
100 100 100 100 100 100 100 100 100 100 100 100 95 94 99 100 100 100 100 91 84 79 70 70 68 68 69 74 71 71 79 87 90 80 84 90 88 83 80 77 73 70 64 60 50 61 68 79 88
100 100 100 100 100 93 90 100 100 100 100 100 100 100 100 100 100 100 100 84 76 78 82 72 77 78 70 72 78 76 81 94 97 100 100 100 96 92 86 75 59 59 58 53 49 47 47 59 70
100 100 100 100 100 100 100 100 100 100 100 100 100 100 100 100 100 100 100 100 100 99 100 100 94 94 84 93 91 91 97 97 99 99 97 100 98 88 81 60 75 71 70 65 60 45 40 45 54
97 100 100 100 100 100 100 100 100 100 100 100 100 98 99 100 100 100 100 100 100 100 100 97 98 100 98 97 100 100 97 98 100 98 97 91 84 83 84 76 72 70 87 81 82 63 58 53 49
100 100 100 100 100 100 100 100 100 100 100 100 100 97 98 100 100 100 100 100 100 100 100 100 100 100 100 100 100 100 100 100 97 99 93 87 80 78 84 82 81 88 90 87 80 80 86 74 72
90 97 96 100 100 100 100 100 100 100 100 100 99 98 100 100 100 100 100 100 100 100 100 100 100 100 100 100 100 100 100 99 96 92 85 88 88 80 76 80 85 95 100 98 94 93 94 96 92
67 71 83 84 100 100 100 100 100 100 100 100 100 100 100 96 99 100 100 100 100 100 100 100 100 100 100 100 100 100 100 100 100 100 100 98 92 93 83 88 99 100 95 94 94 100 100 95 86
74 79 77 76 91 97 100 100 100 100 100 100 100 100 100 100 99 94 93 94 96 100 100 100 100 100 100 100 100 100 100 100 100 100 100 100 98 94 100 99 98 100 99 94 99 100 99 94 86
96 90 88 94 72 84 95 100 100 100 100 100 100 100 100 95 96 100 100 98 99 100 100 100 100 100 98 93 92 93 96 100 100 100 100 100 100 100 95 99 88 87 92 100 99 96 80 87 97
87 85 97 98 99 90 81 80 91 100 100 100 100 100 100 100 100 97 100 99 90 86 84 86 90 99 100 100 99 97 92 88 87 89 93 98 100 100 100 100 100 100 100 100 100 100 99 92 100
83 100 97 100 100 100 100 97 85 92 91 99 100 100 100 100 100 100 96 90 92 96 95 96 97 92 84 80 86 84 74 66 62 55 51 60 81 99 100 100 100 100 100 100 100 100 94 100 100
90 100 100 100 100 100 99 91 87 80 77 79 89 97 99 95 93 100 100 100 100 98 99 99 99 98 94 89 92 96 90 78 70 68 74 81 89 93 98 100 100 98 100 94 97 94 88 100 100
100 100 100 100 100 100 94 84 84 76 78 76 72 79 86 87 89 90 92 95 100 99 96 93 93 93 89 83 78 73 73 77 79 81 82 85 88 89 95 98 99 99 92 90 88 94 100 100 100
96 96 100 100 100 99 85 87 77 76 81 92 90 83 84 81 78 82 80 74 70 68 67 66 61 58 50 43 36 29 24 20 21 28 33 40 52 62 72 76 78 76 79 96 100 100 100 100 100

GFSSGP_250_rhum_063.txt.gz
RH
34 32 29 29 25 31 34 31 29 24 22 23 22 23 25 30 32 30 25 24 27 29 31 31 26 26 27 25 25 26 24 22 21 20 22 19 17 20 21 20 18 16 14 14 14 13 13 15 18
35 33 32 28 25 30 39 32 27 25 24 22 21 22 23 24 27 27 24 23 23 25 26 28 27 26 28 28 27 23 20 19 18 17 15 16 17 16 15 14 13 12 11 11 12 13 15 16 18
38 33 32 39 29 36 36 30 24 24 23 22 20 21 22 22 23 24 24 23 20 20 22 24 26 25 25 28 25 23 20 17 15 14 14 14 14 15 14 13 12 12 13 14 14 13 12 12 12
68 38 32 37 35 42 35 32 29 24 22 21 20 19 20 20 19 21 21 22 21 19 18 18 19 22 22 22 22 19 16 15 15 15 15 13 13 13 13 13 11 12 12 12 12 12 14 15 16
79 69 36 33 37 40 38 34 35 28 22 19 18 18 19 18 19 19 18 18 20 20 18 18 17 16 16 18 18 18 17 16 16 16 14 13 13 12 13 12 12 13 13 14 14 14 16 17 18
79 83 59 43 52 53 59 70 49 33 30 25 20 24 27 22 28 21 19 20 23 21 21 19 18 16 15 14 15 14 14 14 13 13 13 13 12 12 13 13 13 14 14 16 16 16 16 16 18
73 90 100 98 99 49 57 63 75 62 35 34 34 37 41 42 41 39 32 37 50 37 20 19 17 16 15 16 16 15 15 15 14 14 14 14 14 14 14 14 15 14 15 16 16 17 16 17 18
56 71 98 100 100 100 69 59 69 73 54 41 35 40 41 42 41 47 54 60 57 54 44 35 29 24 21 22 22 22 20 18 19 19 18 16 16 16 16 17 18 18 17 16 16 16 16 17 16
51 55 74 100 100 100 100 80 66 75 68 57 47 52 48 43 44 46 53 59 61 61 50 43 38 33 29 26 25 24 25 24 22 21 19 18 19 19 20 20 21 21 20 20 19 18 18 17 18
79 67 61 82 100 100 100 96 72 69 83 69 60 63 61 54 50 52 55 63 63 69 57 42 40 38 36 34 32 32 32 29 27 26 25 22 22 22 22 22 21 19 20 20 19 21 21 21 21
89 100 94 79 87 100 100 99 94 73 79 97 76 62 67 62 61 63 64 84 89 79 76 56 50 53 51 44 38 41 45 49 47 47 43 38 32 29 25 22 20 19 20 19 20 20 23 26 23
83 100 100 99 100 96 99 100 96 83 90 94 100 89 72 74 76 72 77 76 82 89 84 74 73 71 68 60 58 64 62 53 49 41 34 30 26 23 22 20 21 20 19 19 22 25 27 27 30
100 100 100 100 100 100 91 78 88 98 89 91 100 100 89 85 74 70 80 84 81 82 83 82 70 61 56 64 57 52 48 43 38 33 28 25 25 24 25 28 28 27 27 27 31 32 34 36 37
100 100 100 100 100 100 100 100 80 96 90 94 100 100 100 100 93 86 85 96 98 92 89 86 74 59 48 45 47 46 43 39 38 37 38 34 33 33 32 33 33 35 38 39 37 45 45 52 50
100 100 100 100 100 100 100 100 100 98 80 87 88 94 100 100 100 96 91 88 88 84 77 74 68 62 56 53 52 48 49 46 43 43 42 42 43 39 46 55 57 58 51 48 58 64 61 63 57
100 100 100 100 100 100 100 100 100 96 95 100 98 91 90 92 98 91 86 75 64 68 70 63 58 55 53 54 55 50 48 47 46 51 48 55 54 59 67 70 67 65 75 70 75 72 67 63 56
100 100 100 100 100 100 100 100 100 100 100 100 100 100 100 100 100 100 100 94 74 68 68 70 64 65 64 63 58 68 70 70 62 61 53 61 76 79 85 86 78 79 80 84 82 80 74 63 53
100 100 100 100 100 100 100 100 100 100 100 100 100 100 100 100 100 100 100 98 91 81 82 83 89 88 81 76 73 79 86 87 88 90 94 93 91 99 100 94 85 81 82 86 86 88 81 63 58
98 100 100 100 100 100 100 100 100 100 100 100 100 100 100 100 100 100 100 100 100 100 98 94 90 93 88 85 85 86 90 89 94 96 98 99 100 99 97 83 90 98 97 90 88 82 82 79 74
26 100 100 100 100 100 100 100 100 100 100 100 100 100 92 95 100 100 100 100 100 100 100 100 100 100 95 97 100 96 93 100 100 99 100 100 98 98 100 100 100 100 100 98 99 95 95 86 88
32 64 100 100 100 100 100 100 100 100 97 98 99 100 100 100 100 100 100 100 100 100 100 100 100 100 98 99 100 100 99 100 100 100 100 96 98 100 100 100 100 100 100 100 100 96 81 82 94
29 43 100 100 100 100 100 100 100 91 90 85 86 87 88 88 95 95 98 100 100 100 100 100 100 100 100 100 100 100 100 100 100 100 100 100 100 100 100 100 100 100 100 100 100 99 92 100 100
30 40 53 100 100 100 100 100 100 100 100 91 99 97 87 82 86 92 92 100 96 100 100 100 100 100 100 100 100 100 100 100 100 100 100 100 100 99 100 100 100 100 98 100 100 100 100 99 94
31 38 39 73 100 100 100 100 100 100 100 100 100 100 96 91 91 91 91 87 80 80 87 96 100 99 98 100 100 100 100 100 100 100 100 100 100 100 100 100 100 100 100 100 100 97 100 96 99
62 37 51 66 86 100 100 100 100 100 100 100 100 100 100 100 97 100 98 82 80 78 84 93 94 99 100 100 100 100 100 100 100 100 100 100 100 100 100 92 90 96 99 100 100 100 100 100 100
44 58 55 78 86 98 98 100 100 100 100 100 100 100 100 100 96 99 87 81 84 88 92 93 92 94 90 86 86 86 84 85 93 98 100 100 100 100 100 100 97 97 100 100 100 100 100 100 100
22 41 60 70 77 98 100 83 78 88 89 90 100 100 100 100 100 100 97 90 92 97 93 86 84 81 86 96 100 100 100 91 86 89 87 83 87 90 92 97 100 100 100 100 100 100 100 100 100
47 47 77 96 100 100 96 94 84 77 75 75 75 86 100 100 100 100 100 100 100 100 100 98 100 100 100 99 96 93 92 86 82 80 75 72 72 77 82 91 98 100 100 100 100 100 100 100 100
73 51 84 93 100 100 98 98 96 93 94 89 74 69 75 85 95 100 100 100 100 100 100 100 97 96 94 90 83 80 78 73 72 70 68 68 68 75 84 90 93 94 99 100 100 100 100 100 100
65 72 87 86 100 100 100 100 100 96 91 87 81 76 72 67 64 64 74 81 86 100 100 96 88 83 82 78 70 67 66 63 51 38 33 32 34 39 43 54 61 71 81 95 98 100 100 100 100

GFSSGP_250_rhum_066.txt.gz
RH
57 41 32 32 28 29 33 36 29 25 28 35 37 41 41 40 38 42 37 56 59 53 51 57 55 52 49 49 48 43 40 35 28 24 22 20 19 18 17 18 17 14 13 13 13 12 12 12 13
67 51 37 32 25 31 38 34 29 25 25 31 34 36 36 36 38 38 37 45 44 33 32 35 39 39 38 35 32 25 24 24 23 22 21 18 15 14 15 16 13 13 13 13 12 12 12 13 13
64 62 40 38 27 32 47 36 25 28 27 28 29 32 31 31 31 33 34 36 35 27 25 26 28 33 34 30 27 28 28 27 24 22 21 18 15 15 15 14 13 15 15 14 13 12 13 13 14
43 61 50 38 40 57 48 27 23 27 28 28 26 29 29 29 29 28 29 31 30 26 24 22 23 24 26 27 28 27 26 28 27 28 21 18 18 17 17 17 16 15 14 13 13 13 13 14 15
75 41 51 40 50 60 52 27 23 26 27 28 26 27 27 27 27 27 26 26 27 26 24 22 21 20 20 22 25 25 24 26 27 22 19 19 18 18 16 15 14 14 13 14 14 15 15 16 15
73 53 38 46 61 62 54 31 27 28 24 30 30 27 26 26 26 25 26 23 23 23 23 22 22 20 19 18 17 17 19 19 20 18 16 15 14 15 15 15 15 15 14 14 14 15 15 16 16
82 69 59 42 51 50 51 43 35 33 26 26 29 30 26 24 25 24 23 23 21 19 19 19 20 21 20 21 21 20 18 16 16 16 16 17 17 17 18 16 16 16 16 16 16 17 18 19 19
71 89 85 71 63 47 44 38 43 40 34 32 31 31 29 28 26 23 22 21 22 21 18 16 16 24 28 28 25 23 20 20 20 20 21 21 19 18 19 20 19 19 18 18 19 20 20 18 16
46 78 96 100 100 100 64 40 37 43 40 34 35 34 33 31 27 22 21 26 30 32 37 32 31 34 44 47 40 35 34 28 22 22 21 22 23 23 23 23 22 21 21 23 24 24 21 18 17
31 51 75 98 100 100 100 69 43 38 43 45 35 34 36 36 33 29 29 34 42 44 45 48 49 53 54 55 51 44 38 35 32 31 32 31 30 30 35 34 37 37 35 31 25 21 20 21 21
46 47 65 84 100 100 100 98 66 43 40 49 54 64 76 71 61 37 33 38 42 43 43 44 46 48 51 54 61 46 40 36 36 38 39 36 38 41 46 51 44 36 30 24 22 22 23 24 25
66 69 79 90 95 91 100 100 94 77 60 45 51 60 68 77 79 63 45 38 42 50 47 47 47 50 63 71 68 65 51 43 43 51 51 52 56 57 48 42 39 34 27 26 26 26 28 36 37
90 76 90 100 100 92 89 96 89 82 74 84 80 69 69 73 78 75 68 58 56 59 57 54 56 58 60 63 65 70 71 66 61 55 52 53 48 44 40 35 33 31 29 30 33 37 40 38 40
100 100 100 100 100 100 100 88 90 90 71 84 96 100 100 98 91 84 89 83 70 62 58 59 64 64 64 64 70 77 79 75 66 56 50 47 43 38 35 33 33 35 36 36 34 41 43 47 47
88 100 90 87 100 100 100 100 96 86 83 81 93 100 100 100 100 98 93 91 92 76 65 70 68 68 72 78 85 84 77 69 64 60 55 51 45 41 38 41 42 42 40 37 41 44 53 56 58
52 100 82 99 100 100 100 100 100 97 84 89 96 98 100 100 100 99 98 92 86 88 83 74 71 86 91 96 89 77 66 63 60 57 56 53 48 42 45 50 48 49 51 52 54 59 70 80 72
20 92 100 88 100 100 100 100 100 100 100 98 95 93 95 100 100 100 100 95 89 94 99 98 93 90 84 77 68 65 64 64 58 55 56 56 60 58 62 62 61 61 65 68 72 88 96 95 88
14 98 100 100 100 100 100 100 100 100 100 100 97 96 100 100 100 99 95 98 96 92 86 93 98 99 86 77 75 71 65 65 65 70 77 77 74 72 77 73 63 66 70 80 85 99 98 88 86
10 47 100 100 100 100 100 100 100 100 100 100 100 100 100 100 100 100 100 100 100 98 95 81 77 84 88 91 84 87 83 83 81 75 83 85 83 80 74 71 65 74 92 100 100 100 100 100 100
10 17 82 100 100 98 100 100 100 100 100 100 100 100 100 100 100 100 100 100 100 100 100 100 94 99 96 93 94 91 90 94 95 92 93 99 87 80 74 88 96 96 100 100 100 100 100 100 100
11 13 32 98 100 100 100 100 100 100 100 100 100 100 100 100 100 100 100 100 100 100 100 100 99 96 85 84 83 96 99 100 100 100 100 97 98 100 99 99 95 94 90 93 97 100 100 100 100
12 12 17 52 100 100 100 100 99 100 100 100 100 100 100 100 100 100 100 100 100 100 100 100 100 100 99 95 93 98 100 100 100 100 100 100 100 100 100 100 100 100 100 100 99 100 100 100 100
15 14 16 21 56 100 100 100 100 100 98 100 100 100 100 100 100 100 100 100 100 100 100 100 100 100 100 100 100 100 100 100 100 98 96 100 100 100 100 100 100 100 100 100 100 100 95 88 89
15 16 16 18 28 97 100 100 100 100 97 95 99 100 100 100 100 99 99 98 96 100 100 99 96 97 97 100 100 100 100 100 100 100 100 100 100 100 100 100 100 100 100 100 100 100 100 100 100
15 16 16 18 22 83 100 100 100 100 100 98 91 90 92 90 85 86 87 85 86 86 84 75 76 82 96 94 95 91 74 79 92 100 100 100 100 100 100 100 100 100 100 100 100 100 100 100 100
17 16 15 16 19 38 95 100 100 100 100 100 96 88 79 74 73 73 70 69 76 77 71 64 69 76 71 76 87 74 74 81 94 96 100 100 100 100 98 99 100 98 92 94 97 100 100 100 100
15 17 17 20 23 24 34 67 100 100 100 100 100 92 92 94 100 98 91 74 72 73 69 66 70 74 74 77 73 74 81 92 87 88 91 85 82 85 87 91 96 99 96 98 96 100 100 100 100
18 17 19 22 28 30 40 49 93 100 100 100 100 100 100 100 100 100 89 81 84 83 83 84 81 75 75 78 83 82 76 73 79 85 91 90 91 89 90 97 100 100 100 100 100 100 100 100 100
19 29 32 36 42 51 46 48 64 99 100 100 100 100 100 100 100 100 98 100 100 100 100 100 100 100 100 100 100 100 99 92 96 99 97 93 94 100 100 100 99 97 96 95 94 92 97 92 100
29 24 45 70 85 76 71 69 70 74 82 100 100 100 100 100 100 100 100 100 94 90 92 91 92 97 97 97 99 98 88 77 73 76 83 78 64 58 56 61 59 61 67 72 74 78 97 100 100

GFSSGP_250_rhum_069.txt.gz
RH
42 38 37 27 33 38 58 51 58 46 56 73 76 60 52 59 34 36 44 41 38 43 47 60 63 69 67 63 58 56 55 53 52 52 45 35 27 25 21 17 16 12 13 14 12 14 13 13 12
44 43 37 30 24 36 55 55 57 39 38 69 66 57 49 41 46 44 38 45 44 50 61 70 69 65 62 58 54 54 54 50 42 38 32 24 23 21 18 15 13 12 13 14 14 16 15 14 13
45 42 39 37 26 32 54 53 36 30 44 49 55 51 48 44 45 48 38 38 39 40 56 62 52 46 45 46 46 41 36 31 27 24 24 24 21 18 15 16 16 17 17 17 16 15 13 13 13
86 46 39 36 35 55 47 52 31 33 33 40 54 45 40 44 44 46 39 38 36 36 45 48 33 30 33 32 33 30 28 26 25 25 26 24 20 19 19 19 20 19 18 16 14 14 15 14 15
84 67 47 46 58 62 54 34 31 36 33 35 45 45 42 41 40 40 36 37 37 35 36 41 30 25 25 26 30 28 26 25 24 24 24 24 23 25 22 19 17 16 16 16 16 16 16 16 16
71 81 54 61 81 82 58 36 25 35 34 35 38 43 38 40 39 36 33 32 31 31 33 34 31 26 24 21 21 23 24 25 25 24 23 24 25 23 20 17 16 16 16 18 18 18 18 18 17
83 76 68 63 82 82 76 49 28 36 35 35 35 41 36 38 39 36 32 28 27 26 26 28 30 27 25 24 22 22 20 19 20 19 19 18 18 18 18 17 17 18 18 18 20 21 20 20 20
54 76 78 57 74 84 86 68 42 36 38 32 38 40 41 38 40 38 32 27 25 26 25 25 26 24 23 23 24 24 24 22 21 22 23 23 23 22 21 21 23 22 22 23 24 28 28 30 34
29 67 76 70 73 82 79 70 57 47 42 29 38 33 36 53 46 42 37 28 24 23 24 24 25 23 21 20 19 19 25 39 40 42 38 42 37 31 29 28 30 30 30 33 37 36 39 39 35
43 34 87 100 100 87 84 75 64 53 57 47 42 32 38 42 46 38 33 33 28 24 24 23 22 22 23 26 28 29 32 36 42 50 55 46 40 37 35 36 39 39 36 40 43 44 43 40 34
56 36 77 100 93 82 87 90 63 64 63 60 54 40 37 43 47 41 32 31 30 28 27 26 23 22 28 34 38 43 48 48 48 48 57 59 48 40 38 40 43 44 42 43 46 43 36 32 30
59 94 64 79 96 100 100 100 64 58 60 68 52 46 54 51 51 49 38 35 34 34 32 30 27 27 32 42 45 44 44 45 46 55 58 61 63 63 57 57 55 47 46 42 39 34 32 31 28
46 95 73 46 95 100 100 100 100 58 45 54 62 57 50 50 52 49 42 38 38 38 37 35 35 32 35 40 41 45 46 49 55 56 59 60 66 70 71 66 58 50 45 43 39 37 33 35 32
34 74 99 53 72 94 100 100 100 78 53 49 57 52 48 46 48 50 48 42 41 43 57 65 69 50 39 40 45 56 59 61 65 65 62 67 73 65 65 62 55 48 41 39 40 37 36 32 36
14 31 96 100 55 74 100 100 100 98 74 75 56 61 58 45 44 46 51 53 60 69 82 84 83 80 72 65 59 62 66 70 70 70 73 82 83 78 65 54 47 43 41 41 43 42 43 47 47
11 23 46 100 74 80 98 100 100 100 87 80 85 86 97 100 95 80 70 52 56 62 62 63 70 79 87 87 84 93 85 78 80 91 85 83 79 66 54 48 48 48 50 47 48 48 46 48 54
10 12 61 100 96 91 96 100 100 100 100 84 86 90 100 100 100 100 100 90 77 90 92 96 98 99 100 95 88 80 77 74 76 81 76 67 61 56 55 53 57 63 62 61 59 56 58 68 72
9 11 81 100 100 88 98 100 99 100 100 96 91 97 100 100 100 100 100 100 100 100 100 100 100 100 95 91 80 76 77 73 70 70 67 62 68 67 58 64 73 68 74 65 63 73 78 79 81
9 12 17 86 100 100 94 100 100 100 100 100 94 98 100 100 100 99 100 100 100 100 100 95 94 91 82 78 80 84 74 70 82 82 83 86 90 88 84 77 74 78 76 79 76 86 91 94 100
9 10 13 43 98 100 100 100 100 100 100 100 100 94 100 100 100 100 100 100 100 100 99 100 99 100 98 95 100 99 92 97 90 89 86 88 83 76 82 80 84 80 81 88 95 88 93 96 95
11 9 11 16 55 97 100 100 100 100 100 100 100 98 100 100 100 100 100 100 100 100 100 100 100 100 100 100 94 100 100 100 96 98 92 81 76 78 79 80 83 83 92 96 99 100 100 100 98
12 10 10 14 19 56 100 100 98 98 100 100 100 100 100 100 100 100 100 100 100 100 100 100 100 100 100 100 100 90 89 93 91 83 81 80 72 78 79 92 99 88 86 98 92 100 100 100 100
12 11 10 12 15 28 100 100 100 100 100 100 100 100 100 100 100 100 100 100 100 100 100 100 100 100 100 100 95 94 82 80 74 66 64 58 67 76 86 83 86 89 87 100 100 100 100 100 100
12 12 11 12 12 16 26 100 100 100 100 100 100 100 100 100 100 100 100 100 100 100 100 100 100 100 100 100 97 87 73 73 81 75 72 73 66 66 79 89 88 77 89 100 100 98 100 100 100
11 13 13 12 12 13 16 84 100 100 100 100 100 100 100 100 100 100 100 100 100 100 100 100 100 100 100 100 100 93 88 86 91 82 76 75 80 84 83 74 74 83 91 99 100 100 100 100 100
12 13 13 12 13 13 15 35 100 100 100 100 100 92 98 100 100 100 100 100 100 100 100 100 100 99 100 99 97 91 88 90 86 76 68 66 70 74 83 72 54 55 61 71 73 81 88 88 84
12 12 13 14 14 15 14 15 69 100 100 100 100 100 98 91 90 96 100 100 100 99 98 100 100 97 99 95 85 74 70 68 74 65 63 61 61 63 64 67 68 76 82 75 72 71 78 92 100
13 13 14 14 14 14 14 15 20 58 100 100 100 100 100 100 100 94 86 86 86 86 81 79 78 77 77 72 60 52 44 46 52 54 60 66 76 84 92 98 100 100 100 99 100 100 100 100 100
17 15 16 16 16 16 17 15 18 23 71 100 100 100 100 100 100 100 100 92 83 76 79 66 64 61 54 53 63 64 74 83 95 98 99 98 100 100 100 100 93 85 84 80 78 75 73 75 75
21 21 21 21 20 19 19 22 22 24 45 70 100 100 100 100 100 100 100 100 96 96 85 66 79 78 76 88 96 92 99 100 97 90 87 83 80 73 69 48 29 25 28 29 32 35 33 42 53

GFSSGP_250_rhum_072.txt.gz
RH
49 46 28 27 27 38 56 51 38 61 56 76 95 96 87 85 54 44 46 39 29 28 32 32 31 31 28 30 32 38 59 72 76 80 84 76 66 56 34 27 25 22 18 14 11 12 13 14 14
64 50 26 28 23 34 55 51 43 56 45 89 94 87 91 51 60 59 57 45 38 33 35 32 33 33 38 52 50 54 60 58 60 61 60 58 54 45 34 25 21 18 14 12 14 15 16 16 13
74 54 32 24 23 31 60 51 47 45 60 79 86 89 80 55 81 70 64 64 55 44 43 41 35 34 44 53 56 60 60 58 56 53 43 31 25 23 24 22 19 17 15 15 17 16 15 13 13
70 65 38 28 28 42 55 53 36 41 66 60 87 82 87 91 68 53 49 57 51 46 44 43 47 51 50 54 50 45 44 42 36 30 27 26 26 28 25 21 19 18 17 17 17 15 13 13 17
53 82 67 38 32 49 56 46 34 47 73 66 95 66 79 90 57 61 54 47 46 50 43 44 45 60 58 44 34 32 29 28 29 29 28 27 26 24 23 24 21 19 19 17 14 14 17 19 20
49 65 65 34 31 40 47 39 35 54 63 61 91 62 81 81 67 52 46 44 42 42 40 40 38 44 52 34 26 26 27 28 28 26 24 23 22 22 21 19 17 16 16 17 18 20 23 23 23
49 43 66 44 34 28 43 41 27 63 55 75 69 75 74 59 65 54 42 44 48 41 37 39 37 35 38 39 29 26 23 21 20 20 20 19 19 19 18 18 17 18 19 20 21 24 26 28 29
67 39 61 55 60 38 38 39 24 69 65 69 54 61 56 51 56 56 46 38 44 42 38 36 35 34 34 34 32 28 26 24 22 22 21 22 21 22 26 31 28 36 35 32 31 32 36 38 36
58 41 36 66 76 86 67 56 32 69 57 61 64 50 44 71 60 51 48 37 37 37 35 33 32 30 29 29 28 28 28 25 23 22 24 26 36 40 41 54 55 49 43 41 38 35 37 42 42
19 31 42 83 93 99 66 66 41 55 60 64 83 48 57 79 60 54 47 37 32 32 31 31 29 26 26 27 27 28 26 24 22 21 22 31 46 53 55 54 55 58 58 54 48 47 50 51 45
15 22 68 72 94 86 84 60 48 67 58 74 79 46 68 70 55 54 56 50 33 36 34 33 31 28 26 27 25 27 26 25 27 36 46 49 49 49 48 49 52 51 50 46 50 53 53 53 47
12 39 51 66 80 89 91 86 56 63 57 77 70 42 56 63 62 59 53 51 42 38 37 37 34 33 29 29 31 28 27 25 28 41 49 49 49 48 49 51 50 50 50 51 58 60 58 51 42
13 38 37 66 66 93 96 99 84 71 66 61 69 48 64 64 65 66 61 55 52 45 41 35 33 34 35 35 33 31 30 32 33 35 42 44 54 62 60 58 57 55 52 56 59 63 56 45 39
12 14 27 43 54 95 100 100 100 78 64 66 75 75 76 52 65 66 68 58 58 54 46 38 38 37 38 38 38 37 36 39 43 37 38 43 53 60 61 59 63 61 62 66 66 59 50 41 39
12 11 14 25 70 71 99 100 100 96 64 63 80 82 76 74 74 74 75 69 61 63 55 47 40 41 39 39 39 40 41 60 76 74 74 78 74 77 79 73 66 65 62 68 61 50 43 42 42
12 11 10 15 49 80 82 100 100 100 85 69 80 81 76 74 76 79 80 79 67 62 66 62 56 53 47 46 44 44 69 89 85 76 80 83 80 80 72 62 63 60 54 53 48 45 43 47 61
10 9 10 12 24 84 84 99 100 100 99 79 73 83 88 83 78 74 78 80 75 66 66 66 64 60 58 60 67 73 78 75 70 80 83 83 78 69 67 63 60 57 50 47 44 46 54 59 61
11 11 11 13 14 50 100 88 100 100 100 100 90 81 89 100 99 91 79 77 73 70 64 64 60 57 67 66 76 83 79 86 85 84 80 81 76 74 69 62 60 53 53 51 57 61 63 64 66
10 10 10 10 13 17 98 100 79 100 100 100 100 100 99 100 100 100 96 93 100 100 92 88 100 100 100 98 100 89 97 100 99 91 93 89 80 71 73 73 62 70 66 66 68 64 65 70 67
9 9 9 10 11 13 62 100 96 87 100 100 100 100 100 100 100 100 100 100 100 100 98 100 100 100 100 100 100 94 90 97 100 100 97 83 81 80 78 77 77 65 63 63 67 61 61 60 64
9 10 10 10 10 15 20 98 100 98 97 100 100 100 100 100 100 100 100 100 100 100 100 100 100 100 99 97 99 100 100 100 100 100 100 94 86 80 82 76 75 66 63 58 59 61 62 76 77
10 11 11 10 10 16 16 83 100 100 100 99 100 100 100 100 100 100 100 100 100 100 100 100 100 100 100 100 100 100 100 100 100 93 91 90 93 75 73 82 79 80 68 67 74 72 78 79 87
12 11 11 10 11 12 17 17 100 100 100 100 100 100 100 100 100 100 100 100 100 100 100 100 100 100 100 100 100 100 90 100 100 96 89 86 79 85 90 73 69 69 67 70 77 72 74 97 98
13 11 12 12 11 10 12 15 40 100 100 100 100 100 100 100 100 100 100 100 100 100 100 100 100 100 100 99 100 100 96 85 92 98 92 81 82 72 75 62 56 60 62 69 72 68 65 72 74
13 12 12 12 10 11 11 12 15 96 100 100 100 100 100 100 100 100 100 100 100 100 100 100 100 100 100 99 94 97 100 87 84 82 80 76 79 78 78 82 77 70 67 58 58 60 58 57 53
14 11 10 11 11 13 11 11 14 30 100 100 100 100 100 100 100 100 100 100 100 100 100 100 100 100 100 100 89 94 89 84 89 82 83 92 92 91 86 80 76 56 50 47 43 49 49 52 56
13 12 12 14 13 13 13 11 13 21 71 100 100 100 100 100 100 100 100 100 100 100 100 100 100 100 100 100 100 100 100 100 99 99 100 89 80 76 76 61 55 58 55 55 56 52 53 56 75
16 14 12 14 14 13 13 13 12 15 27 45 98 100 100 100 100 100 100 100 100 100 100 100 100 100 100 100 100 100 100 100 100 99 89 71 66 53 57 73 68 62 57 49 62 53 41 33 26
19 14 13 15 16 13 14 13 13 14 18 25 28 53 90 100 100 100 100 100 100 100 100 100 99 100 100 100 100 95 94 91 81 68 63 54 50 60 68 70 82 78 69 34 28 27 21 18 18
21 19 19 19 18 17 15 14 16 14 15 18 34 39 57 91 100 100 100 100 100 100 100 100 97 96 95 88 82 71 72 64 55 55 50 60 80 96 100 94 72 45 31 30 22 19 21 18 18

GFSSGP_250_rhum_075.txt.gz
RH
35 38 51 67 37 33 38 50 42 51 51 51 79 82 86 65 48 46 51 30 35 35 30 23 20 24 28 28 28 26 24 26 58 64 94 97 99 99 91 75 57 54 35 26 20 16 13 12 13
41 33 35 43 53 35 51 40 50 55 68 64 86 65 67 56 50 47 50 30 39 36 32 24 20 22 24 25 26 24 24 28 35 53 79 84 79 80 69 60 54 44 29 21 18 15 14 15 15
41 40 41 38 62 36 65 48 53 60 75 60 74 67 58 72 91 78 70 49 44 35 32 25 22 25 30 35 40 43 46 48 54 58 67 66 64 57 48 34 26 22 22 19 17 17 17 16 14
36 39 36 28 59 56 69 50 41 57 64 59 66 57 64 87 87 66 81 62 53 37 35 31 26 27 34 44 44 50 58 63 62 62 60 52 44 32 27 27 28 26 24 21 21 18 15 14 15
32 46 36 27 80 69 67 43 32 54 71 65 58 53 62 81 77 66 91 73 65 54 44 42 42 41 43 47 46 55 54 49 43 38 35 31 28 27 26 24 24 23 22 20 17 15 16 17 18
22 43 37 39 88 96 70 33 39 49 73 72 70 51 59 83 76 70 86 79 64 60 60 53 52 51 53 56 59 58 43 33 29 28 28 28 27 26 25 23 21 19 17 18 20 21 27 34 33
11 39 43 57 90 100 91 32 23 49 67 69 65 70 71 85 77 66 79 87 63 52 57 56 53 53 50 45 52 57 37 28 26 25 24 23 22 21 21 20 21 21 25 34 36 43 44 42 42
10 51 44 53 79 100 100 40 22 28 76 71 59 57 73 74 85 80 90 92 72 43 52 56 53 52 48 41 39 40 43 34 30 27 26 24 24 23 24 24 24 29 30 32 45 46 53 56 53
11 24 53 56 70 99 100 89 26 34 46 58 51 53 66 69 75 81 80 88 78 50 53 52 53 53 47 43 37 35 35 34 33 30 30 28 26 25 23 22 21 26 40 45 45 49 50 48 46
10 15 54 84 92 81 100 100 31 26 34 56 25 34 67 77 77 80 96 88 62 58 57 51 50 49 44 39 36 33 32 32 32 30 30 27 25 24 28 35 39 42 45 46 48 48 50 48 47
11 13 78 81 86 64 99 100 56 27 34 43 33 41 68 80 89 83 90 91 56 50 46 48 40 41 42 37 34 33 32 30 30 30 29 27 26 27 28 34 44 47 46 47 54 56 54 52 45
11 14 31 87 60 48 80 100 87 39 39 39 33 33 55 88 82 79 92 92 78 53 47 50 48 43 40 38 35 35 34 35 35 34 34 32 29 29 30 31 34 39 40 44 54 59 60 59 52
12 13 17 78 34 46 64 92 86 65 34 51 40 58 48 72 88 85 93 83 99 98 68 61 59 49 42 42 38 37 38 37 37 35 38 39 37 37 36 42 44 45 57 70 74 70 68 58 51
13 14 15 22 25 37 44 78 96 85 45 47 52 60 56 67 91 87 93 94 82 92 88 68 65 63 58 53 50 48 49 48 48 46 40 40 40 42 46 71 88 86 76 74 72 72 63 54 50
12 14 16 12 19 21 40 70 83 100 63 68 42 50 61 64 81 82 77 91 83 74 71 67 64 66 60 56 56 62 60 58 51 47 42 41 41 44 56 94 85 72 71 70 74 60 57 51 42
11 13 15 12 11 13 35 64 97 100 83 78 56 53 67 69 73 93 90 84 86 72 62 60 62 63 64 66 61 60 67 62 56 52 48 47 50 62 76 82 74 73 73 79 64 58 49 45 44
11 11 15 15 12 10 19 75 100 100 98 87 73 54 58 70 68 87 94 99 90 86 70 65 65 66 66 68 68 66 64 60 56 55 55 58 64 63 66 60 69 86 85 74 62 53 49 49 44
14 15 15 17 15 13 13 63 100 100 97 100 100 89 71 65 78 76 90 93 93 90 88 77 70 74 70 73 78 74 64 66 66 67 67 62 59 56 71 86 97 90 82 72 64 60 58 56 57
12 12 14 15 16 12 12 26 66 100 100 100 100 99 98 89 99 90 78 90 90 93 92 91 91 76 74 77 77 76 74 70 70 69 80 78 80 89 94 100 94 86 79 80 85 73 65 73 71
11 11 14 14 13 11 15 16 25 72 100 100 100 100 98 93 98 100 98 99 100 100 100 99 86 88 85 79 78 76 75 85 94 99 100 93 99 100 100 100 91 88 83 78 84 80 83 78 74
13 13 13 13 14 14 14 18 14 40 97 100 100 100 100 98 100 100 100 100 100 100 100 100 96 92 96 94 88 87 95 100 100 100 100 100 100 100 100 100 100 96 89 84 77 81 89 84 75
14 14 11 12 13 14 14 16 18 18 72 100 100 100 100 100 100 100 100 100 100 100 100 100 100 100 100 100 100 100 100 100 100 100 100 100 100 100 100 100 100 94 88 82 83 97 91 76 77
16 12 10 11 12 13 13 13 15 17 22 62 100 100 100 100 100 100 100 100 100 100 100 100 100 98 95 98 98 100 100 100 100 100 100 86 100 100 98 94 94 90 85 84 96 92 84 77 66
16 13 11 11 10 10 12 12 14 16 19 24 47 83 97 100 100 100 100 100 100 100 100 100 100 99 95 95 100 100 100 100 100 98 100 98 83 92 88 76 73 72 69 82 79 74 70 65 56
16 15 12 10 8 10 12 12 12 12 15 20 20 40 71 97 100 100 100 100 100 100 100 100 100 100 100 100 98 100 100 98 96 97 100 100 95 85 88 80 89 86 81 85 77 73 60 55 45
18 15 12 10 11 11 11 11 12 12 13 17 23 20 47 74 100 100 100 100 100 100 100 100 100 100 100 100 100 100 100 100 97 99 98 91 89 83 100 99 100 97 90 84 71 60 49 46 41
16 14 13 12 11 10 10 12 13 12 12 14 20 28 26 60 83 100 100 100 100 100 100 100 100 100 100 100 100 100 100 93 94 91 95 85 99 95 96 100 100 92 79 72 53 49 45 42 38
17 15 14 12 13 14 12 12 13 13 13 14 19 32 31 38 77 87 98 100 100 100 100 100 100 95 95 98 98 100 96 93 99 97 96 98 100 100 100 97 86 77 59 45 49 52 45 50 41
18 20 20 16 13 15 14 14 14 14 14 14 14 18 32 29 56 98 100 97 98 100 100 100 100 100 100 100 100 100 100 100 100 100 100 100 100 100 90 76 65 47 58 63 66 76 71 41 32
23 23 19 17 20 23 17 16 14 14 15 14 14 16 24 29 28 35 76 93 92 96 98 100 100 100 100 100 100 99 100 100 100 100 100 100 99 81 70 59 51 64 79 92 85 79 42 38 34

GFSSGP_250_rhum_078.txt.gz
RH
25 33 35 36 35 62 94 85 43 35 40 40 47 49 53 59 70 73 64 50 43 40 37 34 31 28 28 32 44 48 54 43 39 44 56 60 77 61 100 100 100 90 74 58 50 40 26 18 15
13 29 33 33 34 58 100 96 38 52 43 52 45 57 61 52 83 76 62 48 43 41 38 35 34 30 24 26 33 36 37 35 29 26 29 51 67 74 92 88 85 76 70 61 44 27 20 18 17
10 17 26 31 37 45 100 100 43 48 52 45 60 57 55 60 76 79 62 49 46 42 36 32 36 30 25 22 27 29 28 29 31 31 32 42 53 68 75 77 64 50 39 30 22 23 21 19 16
11 10 11 26 35 54 100 96 52 40 62 46 48 46 49 73 77 91 68 55 52 46 43 41 39 32 26 26 30 36 37 44 41 40 45 56 60 65 62 50 42 34 26 25 23 22 21 16 18
12 11 10 14 31 56 100 91 80 39 66 52 39 46 65 65 75 85 61 66 54 47 50 47 40 35 27 32 41 48 55 54 59 66 67 64 61 52 37 31 27 25 23 22 20 19 20 26 33
12 11 10 10 29 62 100 93 85 60 61 60 40 55 62 61 85 85 74 78 73 61 61 60 45 42 34 36 48 48 49 66 66 56 46 39 35 33 29 27 26 25 21 20 21 22 26 30 40
12 11 10 11 35 76 100 81 79 71 51 74 47 53 65 66 79 86 83 82 83 76 72 72 58 50 53 52 53 56 59 60 57 41 30 28 27 27 24 22 22 22 22 23 23 24 33 44 44
8 11 10 11 26 78 100 93 85 82 56 69 54 48 63 68 80 81 84 74 79 88 86 84 69 71 67 60 57 59 58 61 58 42 31 29 28 27 26 27 26 26 25 22 21 40 47 46 46
7 8 11 12 14 81 100 100 64 92 84 63 50 61 56 49 71 79 80 74 67 84 93 89 78 72 72 64 57 55 47 44 47 46 42 38 35 34 32 31 28 25 23 23 31 43 47 45 44
8 7 11 14 16 70 85 93 61 76 100 84 40 62 60 52 63 68 76 88 68 72 87 88 85 75 68 65 56 55 50 44 40 38 37 37 36 34 33 31 27 26 24 26 31 31 34 38 41
8 9 13 15 14 27 73 97 73 62 88 100 80 51 75 65 71 77 80 77 74 75 88 98 89 81 65 62 57 55 53 46 42 38 33 31 30 29 27 26 27 27 30 30 33 38 48 54 68
9 10 11 14 12 16 66 100 77 59 83 100 100 38 73 69 68 85 93 84 76 72 70 81 89 81 72 71 65 57 52 45 40 38 35 32 29 30 31 32 33 34 34 35 38 45 61 71 66
10 10 11 12 13 15 56 100 100 78 48 85 100 57 43 67 67 100 74 68 73 78 86 86 95 94 84 79 70 60 53 47 43 38 37 36 33 36 38 40 42 40 39 40 40 43 61 70 64
10 10 11 11 13 16 41 100 100 98 44 51 97 98 46 56 81 76 92 83 78 70 76 95 100 99 89 86 78 71 63 52 47 44 46 52 50 50 52 49 45 42 41 41 47 52 55 52 58
11 11 10 11 14 16 18 77 100 100 60 36 84 82 68 58 59 86 76 79 67 80 86 88 91 97 90 81 75 72 71 72 62 59 57 57 59 63 61 53 52 50 49 54 59 53 56 75 67
10 10 9 12 15 16 13 57 100 100 79 37 47 72 85 35 64 71 84 62 77 74 71 80 92 100 100 100 98 93 81 85 80 77 66 66 69 68 64 60 60 64 65 65 60 68 92 80 68
10 11 10 13 16 18 14 30 90 100 93 40 31 73 95 93 58 84 96 98 74 81 93 80 86 92 98 96 95 97 93 84 76 72 69 71 74 70 68 69 75 75 68 63 76 100 87 73 72
13 13 12 13 16 19 17 20 45 83 99 62 35 49 89 100 94 79 89 100 98 72 86 98 94 94 94 93 94 89 80 75 75 76 78 79 75 80 83 83 80 77 77 96 100 100 93 97 83
14 13 13 14 16 18 21 19 22 57 71 78 65 47 77 100 100 84 60 75 100 100 77 82 97 100 99 100 97 93 89 84 86 84 83 86 81 88 91 85 88 88 100 100 100 99 100 98 92
14 13 13 13 15 16 20 18 18 19 44 59 68 55 54 89 100 100 85 85 86 100 100 99 97 100 100 100 100 100 97 95 92 90 87 88 88 85 91 96 93 99 100 96 94 100 100 94 93
14 14 14 13 14 16 19 21 15 14 22 39 67 71 52 68 98 100 100 99 97 94 100 100 97 81 83 92 99 100 100 100 100 99 98 97 100 98 94 99 99 100 94 99 97 90 100 100 98
15 16 14 12 13 16 17 20 18 16 15 24 52 72 70 63 80 100 100 100 100 100 100 100 100 100 89 82 85 91 100 100 100 100 100 100 100 100 100 100 100 100 100 97 100 100 100 100 91
16 15 15 13 13 14 15 17 16 16 15 15 35 57 70 77 74 88 100 100 100 100 100 100 100 100 100 100 100 92 91 99 100 100 100 100 100 100 100 100 100 100 95 99 100 100 97 96 79
16 16 16 14 13 13 15 14 16 15 16 17 20 22 46 67 85 86 98 100 100 100 100 100 100 100 100 100 100 100 100 95 88 86 86 89 92 93 95 92 94 98 100 100 100 100 94 97 98
17 16 15 14 12 14 14 14 21 15 15 16 17 19 16 19 52 87 89 98 100 100 100 100 100 100 100 100 100 100 100 100 100 100 100 100 97 87 84 83 94 93 96 97 87 85 86 92 85
17 16 17 18 16 15 12 14 19 16 16 16 17 20 18 17 18 60 96 98 100 100 100 100 100 100 100 100 100 100 100 100 100 100 100 100 100 100 100 100 99 96 91 82 86 84 82 79 75
26 18 17 16 16 14 13 14 17 15 16 18 17 21 22 24 18 19 43 88 100 99 100 100 100 100 100 100 100 100 100 100 100 100 100 100 100 100 100 100 100 100 98 93 97 92 85 78 68
22 24 17 14 14 14 15 16 18 15 16 17 18 20 27 23 19 18 18 21 52 89 92 85 88 97 99 100 100 100 100 100 100 100 100 100 100 100 99 97 99 100 96 97 100 91 76 63 50
22 18 18 16 14 16 16 17 17 17 15 16 16 16 16 17 18 18 18 18 20 28 49 76 81 84 90 94 95 95 100 100 100 98 100 100 100 100 97 100 95 100 100 93 88 74 61 45 44
21 18 17 19 18 18 21 19 18 18 18 14 15 15 15 15 16 16 16 17 17 19 20 21 26 44 73 82 84 80 90 90 92 85 89 100 92 100 91 100 90 99 99 84 65 64 44 66 62

GFSSGP_250_rhum_081.txt.gz
RH
10 16 30 37 32 30 32 95 100 91 82 44 22 33 36 45 65 59 54 40 37 38 39 47 44 35 31 27 24 22 24 27 30 35 51 100 81 70 63 67 72 66 99 97 88 72 61 45 28
10 10 19 32 32 33 38 98 100 95 81 54 28 27 32 50 75 66 58 41 33 38 40 43 40 37 33 29 26 25 28 36 50 50 34 51 40 46 44 62 67 77 80 88 77 57 36 26 23
11 10 12 30 33 38 43 67 88 100 94 72 32 30 36 54 78 66 57 49 44 43 45 44 42 39 36 32 28 26 28 37 46 50 51 39 29 33 38 65 62 76 79 60 45 35 25 24 22
11 11 9 10 32 45 59 50 94 100 100 78 46 38 43 40 74 67 50 51 51 51 49 46 42 39 36 35 31 26 23 31 34 34 32 34 40 41 41 47 60 61 47 32 31 26 24 21 18
10 11 10 9 13 55 70 51 70 87 100 94 75 42 43 40 63 75 60 53 60 60 56 50 46 41 38 37 34 30 32 33 34 39 44 48 50 52 53 58 54 46 35 29 25 21 19 20 22
10 10 9 9 13 59 65 51 45 63 93 100 97 48 47 46 53 71 69 49 63 62 62 57 51 47 42 41 38 39 37 38 43 49 48 57 60 59 54 49 43 33 25 22 20 21 25 24 21
9 11 11 11 13 34 48 50 40 42 90 88 82 47 45 58 52 71 74 62 61 75 70 70 61 58 55 48 42 39 41 48 52 61 66 64 54 41 34 30 27 24 23 25 26 26 24 22 28
8 10 10 12 13 16 47 52 42 52 67 91 78 62 49 58 51 63 73 74 62 72 75 80 71 71 72 56 52 45 39 44 59 68 67 56 39 30 28 27 26 28 29 30 29 27 26 25 25
9 7 10 14 14 16 16 51 49 49 55 91 100 82 60 67 56 51 67 73 72 66 82 85 84 83 83 72 57 55 55 56 60 63 63 62 47 35 34 34 35 36 34 34 31 28 27 29 33
8 9 9 16 17 20 14 19 41 41 45 68 100 100 74 86 66 58 63 74 68 65 74 84 91 93 94 82 71 69 63 63 61 56 49 48 47 44 40 38 37 36 34 33 30 30 34 38 38
10 11 10 12 17 17 14 14 16 23 49 58 95 100 88 92 83 68 69 74 67 69 78 84 91 95 96 93 79 74 69 65 61 57 52 45 42 41 38 36 35 33 31 33 33 35 40 41 39
15 12 11 10 13 16 15 15 16 12 40 58 73 100 100 94 84 77 62 68 70 71 70 79 87 92 96 97 95 83 75 67 69 65 56 50 45 42 38 34 34 32 31 34 37 44 44 44 40
15 16 12 10 10 14 16 14 18 14 18 49 62 100 100 99 88 79 66 66 73 86 84 77 77 82 100 97 100 99 86 75 72 75 65 56 48 44 40 37 35 34 39 44 51 51 48 47 49
13 14 14 11 10 11 12 14 18 18 12 35 60 98 100 100 100 100 95 82 75 99 98 92 75 83 82 99 100 100 100 93 86 85 76 67 60 56 54 47 42 43 52 57 57 55 51 49 56
10 12 12 12 11 11 10 12 18 19 15 23 61 89 100 100 100 100 100 92 77 74 96 99 91 83 88 90 100 100 100 100 99 98 91 81 78 75 71 56 55 63 64 61 60 58 58 62 66
9 10 11 11 12 12 10 11 18 20 15 13 64 75 100 100 100 100 100 91 85 88 99 100 100 89 84 92 95 100 100 100 100 98 94 88 81 78 78 80 78 76 73 72 68 71 75 74 71
9 10 12 12 13 13 11 12 17 20 22 18 22 84 88 97 100 100 100 100 86 90 96 100 100 100 100 98 100 100 100 100 100 100 97 95 95 96 91 92 86 76 75 74 78 82 86 79 90
10 13 14 14 15 15 13 15 15 20 22 34 14 64 81 93 100 100 100 96 95 80 82 93 96 100 100 100 100 100 100 100 100 100 100 99 100 97 90 81 78 78 82 84 89 87 82 91 87
13 16 16 16 15 15 14 16 14 20 20 40 18 19 78 75 93 100 100 100 97 97 94 85 100 100 100 100 100 100 100 100 100 100 100 100 100 98 94 86 84 83 85 86 88 99 100 96 81
13 14 14 15 14 14 14 15 15 20 20 24 29 15 24 77 64 88 98 100 100 94 100 100 100 100 100 99 100 98 98 100 100 100 100 100 100 95 91 94 93 85 93 96 100 100 100 100 99
13 17 15 14 14 14 14 15 15 19 20 21 24 18 14 30 78 64 89 100 100 100 100 100 100 100 100 100 96 96 99 100 100 100 100 100 100 100 100 100 100 100 100 100 100 100 100 100 100
15 17 17 14 13 16 14 17 17 19 22 21 33 21 21 20 59 84 81 85 100 100 100 100 98 100 100 100 100 100 100 100 100 100 100 100 100 100 100 100 100 100 100 100 100 100 95 95 98
17 16 18 19 15 16 17 16 18 19 20 22 23 19 17 17 36 77 90 84 82 100 100 100 100 89 93 100 100 100 100 100 100 100 100 100 100 100 100 100 100 100 100 100 100 100 100 99 91
17 17 15 19 17 15 16 16 18 20 21 21 21 20 20 17 17 44 70 82 78 96 100 100 100 100 98 98 97 100 100 100 100 100 100 100 100 100 100 100 100 100 100 100 100 100 100 99 100
15 14 13 16 16 19 15 16 18 18 21 20 20 16 17 17 16 22 50 66 84 77 89 100 100 100 100 100 100 99 97 96 98 100 100 100 100 100 100 100 100 100 100 100 100 100 100 100 100
16 12 14 16 19 19 16 17 19 16 18 20 20 19 16 16 17 18 30 72 73 81 79 85 98 100 100 100 100 100 100 100 95 90 89 99 100 100 100 100 100 100 99 99 100 100 100 100 100
17 14 16 20 19 22 18 19 18 16 17 19 17 18 19 17 16 18 18 26 64 89 94 89 90 100 100 100 100 100 100 100 100 100 100 100 100 99 99 98 100 98 100 95 100 98 100 96 86
19 23 22 19 18 19 20 22 23 17 16 17 19 19 17 17 17 18 18 18 18 28 62 89 87 86 90 93 98 100 100 100 100 100 100 100 100 100 100 100 100 100 100 100 100 100 93 91 94
39 42 40 35 26 22 22 23 22 21 18 17 17 18 18 18 17 17 17 16 17 17 17 25 44 60 72 83 89 88 93 100 100 100 99 100 100 100 100 100 100 100 100 100 100 97 100 87 97
30 27 26 30 45 36 24 24 23 22 22 20 18 16 16 15 14 16 18 18 18 18 18 17 16 16 18 26 41 64 83 91 93 89 87 87 90 93 99 100 100 100 100 98 100 94 98 96 95

GFSSGP_250_rhum_084.txt.gz
RH
10 20 33 40 38 31 30 32 35 61 57 43 40 45 45 35 39 40 34 29 30 31 35 40 40 57 44 42 39 35 30 27 26 24 29 29 58 53 100 92 70 66 59 54 59 71 78 70 46
12 13 28 32 30 32 36 38 35 51 52 49 50 52 66 40 51 60 39 35 34 30 26 34 38 43 52 46 39 36 31 28 26 25 26 28 33 33 73 61 57 54 51 64 70 80 73 51 45
12 12 13 21 19 27 45 49 37 44 41 37 41 51 67 47 48 63 50 39 34 33 32 35 36 39 43 46 41 34 31 28 27 28 30 36 39 51 54 41 36 42 53 65 66 59 44 36 26
12 13 12 10 11 15 50 59 42 40 38 37 59 70 79 60 48 65 56 48 45 40 44 41 41 38 39 43 40 37 32 28 26 27 32 41 52 48 44 38 42 47 55 63 50 42 28 30 21
10 11 12 12 11 13 30 60 49 42 35 40 62 66 83 86 62 70 64 46 48 52 57 56 45 46 45 45 42 38 36 33 29 24 32 40 38 37 39 42 56 59 65 51 40 30 26 22 24
9 10 10 13 13 13 19 40 51 44 41 34 48 78 80 92 70 69 78 52 49 62 63 63 52 51 47 47 44 39 37 34 31 34 38 41 43 47 49 60 65 58 49 42 31 24 25 27 27
8 10 11 15 15 13 15 20 49 43 45 38 45 88 75 89 86 58 82 58 56 71 69 68 57 62 52 51 44 41 36 37 38 39 46 54 58 59 65 60 50 38 32 28 26 27 30 30 29
8 9 11 12 16 15 14 15 26 43 42 44 40 93 97 88 87 67 74 72 52 69 77 76 75 69 66 57 50 44 42 40 40 46 55 67 66 68 64 47 33 30 28 30 32 34 35 33 30
8 9 10 14 16 18 16 14 14 53 48 44 42 77 100 97 95 90 77 85 64 71 80 87 84 76 73 67 61 51 49 44 41 48 60 64 64 66 59 46 36 34 34 36 37 37 35 33 31
8 9 11 12 15 16 17 15 14 35 46 46 47 58 100 100 95 98 79 90 77 71 77 81 78 82 81 74 69 63 58 57 52 47 53 58 67 65 64 58 50 44 40 38 38 38 36 35 34
9 13 11 13 13 15 15 15 12 16 32 32 50 50 88 100 99 93 77 81 80 72 70 80 88 88 87 80 81 74 78 70 61 64 64 60 60 56 51 47 45 43 41 39 38 38 35 34 40
10 14 13 12 13 12 15 16 12 12 42 36 57 56 76 100 100 100 96 94 84 70 72 75 86 93 92 85 82 80 85 86 71 75 71 67 67 63 59 56 55 48 44 43 40 38 38 41 44
12 13 15 12 13 12 14 15 14 13 22 17 26 54 63 99 100 100 99 98 94 74 67 72 78 89 93 96 90 84 87 96 94 82 75 70 69 64 62 59 60 57 50 48 46 43 43 41 52
11 15 15 13 12 13 13 17 14 15 13 12 14 46 61 79 100 100 92 100 98 100 97 79 76 84 90 92 93 92 93 98 100 99 93 81 74 69 70 67 67 66 59 60 58 56 50 56 61
10 12 14 14 12 13 12 16 14 18 15 13 14 26 67 73 92 100 90 91 100 100 100 100 90 83 82 89 92 92 92 96 95 100 97 98 97 95 90 89 85 74 67 73 72 70 75 74 67
9 10 11 13 14 14 12 14 16 19 17 16 15 14 45 82 78 100 100 92 100 100 100 100 100 100 100 87 93 92 88 88 96 100 100 99 100 100 100 95 85 80 83 77 78 86 82 72 70
8 8 12 13 16 16 13 13 13 18 18 18 16 16 19 54 90 94 100 100 93 94 100 100 100 100 100 100 100 100 100 94 99 98 95 94 100 98 95 88 88 97 99 96 92 88 82 80 78
10 10 10 15 18 22 16 15 14 16 18 18 18 18 17 17 46 84 99 100 100 90 73 100 100 100 100 100 100 100 100 100 100 100 100 100 100 100 100 100 100 100 100 100 95 94 86 80 80
12 13 13 17 21 23 18 16 15 14 17 16 18 17 19 18 17 55 90 100 100 100 70 74 97 100 100 100 100 100 100 100 100 100 100 100 100 100 100 100 100 100 100 99 98 95 85 86 86
11 13 12 11 15 20 20 18 16 15 16 16 19 20 16 18 17 17 78 100 100 100 100 74 72 90 100 100 100 100 100 100 100 100 100 100 100 100 100 100 100 96 99 100 86 87 86 87 80
11 13 15 12 13 17 16 15 15 15 15 15 17 19 16 16 19 17 26 87 100 100 100 97 90 67 92 100 100 100 100 100 100 100 100 100 100 100 100 100 100 100 98 94 92 82 93 100 100
11 14 14 12 11 16 15 16 14 14 15 16 17 20 18 17 18 20 19 63 98 100 100 100 98 100 96 89 99 100 100 100 100 100 100 100 100 100 100 100 98 95 96 94 100 100 100 100 100
12 12 12 11 14 18 19 17 17 15 17 18 18 20 19 16 17 18 20 20 81 100 100 100 100 100 100 97 98 100 100 100 100 100 100 100 100 100 100 100 100 100 100 100 100 100 100 100 100
12 11 12 13 13 16 19 18 18 18 20 19 18 20 21 19 18 14 16 21 34 95 100 100 100 100 100 100 100 100 96 93 97 97 98 100 100 100 100 100 100 100 100 100 100 100 100 100 100
14 12 12 12 12 18 18 19 20 18 18 19 19 20 20 22 21 17 15 17 23 44 96 100 100 100 100 100 100 100 100 100 100 99 100 100 100 100 100 100 100 100 100 100 100 100 100 100 100
12 13 13 14 18 18 16 22 23 18 17 18 20 20 22 22 26 21 19 17 17 22 53 89 100 100 100 100 100 100 100 100 100 100 100 100 100 100 100 100 100 100 100 100 100 100 100 100 100
15 15 15 16 18 18 19 25 24 18 18 17 18 20 22 23 22 21 18 17 15 16 18 52 90 94 98 100 100 100 100 100 100 100 100 100 100 100 100 100 100 100 100 100 100 100 100 100 100
16 16 18 20 20 20 19 28 26 21 20 21 19 20 22 22 21 21 20 18 17 15 16 18 30 72 84 90 94 98 100 100 100 100 100 100 100 100 100 100 100 100 100 100 100 100 100 100 100
19 19 23 26 22 20 27 33 31 22 22 23 23 22 22 23 21 21 21 20 18 16 17 17 18 19 32 67 87 90 90 93 95 99 100 100 100 100 100 100 100 100 100 100 100 100 100 100 100
29 24 29 46 45 40 48 42 36 25 24 29 26 26 22 21 21 19 20 22 21 20 20 20 19 19 18 18 26 55 87 100 99 99 100 100 100 100 100 100 100 100 100 100 100 100 100 94 91

GFSSGP_250_rhum_087.txt.gz
RH
11 17 33 44 36 37 29 37 46 51 51 32 30 42 57 61 49 50 35 37 30 30 28 28 34 34 33 35 41 45 54 54 45 40 46 34 39 38 28 41 80 97 91 72 60 46 56 55 75
11 11 18 33 37 38 38 40 39 41 43 33 28 37 50 68 58 69 41 39 38 30 28 27 31 41 41 43 42 34 39 39 40 36 30 29 27 23 26 40 39 48 54 48 51 56 68 68 63
11 11 11 16 29 38 44 43 40 38 36 32 29 31 44 80 81 70 47 36 44 33 32 30 31 34 43 44 48 42 38 37 39 37 32 28 27 25 29 33 41 45 51 38 49 55 64 48 40
10 11 11 11 15 43 50 44 44 38 36 34 30 28 40 78 99 84 57 40 47 34 32 32 28 32 37 45 42 39 48 45 38 32 32 29 30 33 41 50 52 52 46 41 54 52 55 40 30
9 9 10 12 12 13 30 42 42 39 35 36 30 28 38 86 100 89 75 46 47 49 41 42 38 39 42 41 46 40 40 44 39 35 30 28 26 34 45 47 48 50 47 52 58 65 44 30 24
8 8 9 11 14 13 14 36 36 41 39 40 35 33 31 51 100 99 86 59 41 54 49 53 53 48 52 46 46 43 42 41 38 36 34 31 29 35 46 49 53 58 62 66 59 48 33 27 27
7 8 10 13 14 14 14 16 30 44 43 42 37 39 33 37 90 100 97 79 40 50 55 61 62 56 58 55 51 46 44 42 40 38 36 35 40 43 53 59 64 70 60 46 38 31 28 31 33
6 7 8 12 13 16 16 14 30 43 48 47 38 34 34 38 86 100 100 94 64 42 60 69 74 68 66 62 59 51 48 46 42 41 40 44 45 48 63 70 76 68 46 34 32 31 34 36 35
6 6 8 12 14 19 18 16 15 29 49 48 45 28 38 45 76 100 100 100 87 53 61 74 72 78 74 72 65 58 55 48 46 42 44 44 50 62 77 79 67 56 47 42 37 37 40 39 35
6 7 9 12 14 17 16 16 15 14 17 17 36 38 42 41 50 100 100 100 100 78 57 76 69 73 75 75 70 72 61 56 53 45 47 47 51 60 76 72 66 61 57 51 46 44 40 38 36
7 8 9 12 15 15 15 17 16 13 13 13 18 28 48 44 41 76 100 100 100 97 64 76 84 76 77 80 77 77 72 66 63 54 54 52 53 55 63 68 68 62 61 53 48 45 43 41 40
9 9 9 12 14 14 13 16 17 14 14 14 13 18 59 57 48 58 100 100 100 100 92 75 81 83 79 82 85 85 84 79 79 74 66 58 56 51 54 58 65 62 56 57 57 56 52 49 48
10 10 10 10 13 13 12 12 17 15 14 14 13 14 38 61 52 60 96 100 100 100 100 79 71 88 81 79 84 93 93 91 86 87 90 82 70 68 70 69 71 72 68 63 66 62 61 56 56
9 11 11 11 11 12 12 13 14 15 15 14 14 14 19 66 62 54 72 100 100 100 100 100 85 78 86 81 81 85 94 96 94 87 93 94 94 87 82 79 79 80 72 69 72 64 64 61 59
10 11 13 12 10 12 12 12 14 16 16 15 14 15 15 45 77 62 57 82 100 100 94 100 100 89 84 92 82 80 87 95 98 96 92 90 92 92 92 86 84 87 82 71 70 70 60 58 79
8 11 11 12 12 11 12 13 16 15 16 15 15 15 16 30 80 78 59 59 95 100 100 100 100 100 100 83 85 84 85 88 92 93 93 91 89 96 95 89 89 89 95 85 80 70 84 92 88
7 8 12 12 13 14 11 13 14 16 16 14 15 15 17 18 67 96 83 64 63 100 99 100 99 99 99 100 100 91 87 86 93 97 94 94 94 92 92 98 100 95 87 96 97 91 100 100 100
7 8 10 15 16 18 16 14 14 17 16 15 15 14 14 18 43 85 87 86 75 98 100 100 90 84 83 96 100 100 100 89 87 91 95 98 100 95 90 95 99 100 100 100 100 100 100 100 99
9 10 12 14 17 20 19 16 15 16 18 17 14 15 16 19 25 54 80 75 96 97 100 100 99 78 92 100 100 100 100 100 100 100 100 100 100 100 98 100 100 100 100 100 100 100 100 100 99
8 11 11 12 16 18 21 20 15 15 17 17 15 16 17 18 19 28 47 58 82 99 100 100 100 100 72 85 98 100 100 100 100 100 100 100 100 100 100 100 100 100 100 100 100 100 100 99 100
8 11 14 13 13 15 18 21 15 15 16 16 17 16 18 19 22 20 19 19 40 90 94 100 100 100 100 87 95 99 100 100 100 100 100 100 100 100 100 100 100 100 100 100 100 100 100 100 100
8 12 15 14 14 15 15 18 19 16 16 16 16 16 19 21 20 22 20 18 17 54 94 100 100 100 98 97 85 100 100 100 100 100 100 100 100 100 100 100 100 100 100 100 100 100 100 100 99
10 12 13 13 13 13 13 17 21 21 17 17 16 16 16 21 21 21 22 19 18 17 42 98 100 100 100 100 76 80 100 100 96 100 100 100 100 100 100 100 100 100 100 100 100 100 100 90 97
11 11 11 12 13 15 15 19 21 23 22 18 16 17 15 16 19 21 22 22 21 20 18 34 96 99 100 92 100 83 100 97 100 100 100 100 100 100 100 100 100 100 100 100 100 100 98 100 100
12 11 10 11 12 14 16 20 22 19 19 20 19 18 17 15 16 18 20 21 21 20 19 19 22 59 86 87 95 97 96 98 96 97 100 100 100 100 100 100 100 100 100 100 100 100 98 100 100
16 13 12 12 14 16 15 21 22 20 18 17 18 18 18 18 17 17 20 18 18 21 19 18 18 19 38 78 90 99 100 100 100 99 95 95 90 90 98 100 100 100 100 99 100 100 100 100 100
16 14 13 15 15 17 17 22 21 18 18 18 16 16 16 17 18 18 19 17 17 16 20 19 19 20 20 25 81 98 100 100 100 100 100 100 100 100 100 100 100 100 100 100 100 100 100 100 100
21 20 17 16 18 20 19 21 20 17 20 19 18 17 19 20 18 19 22 22 19 17 15 16 19 19 20 20 24 74 100 100 100 100 100 100 100 100 100 100 100 100 100 100 100 100 100 100 100
25 25 20 20 20 22 26 22 19 16 20 22 21 22 23 23 21 21 23 23 23 21 16 13 14 16 18 20 21 24 57 100 100 100 100 100 100 100 100 100 100 100 100 100 100 100 100 100 100
24 24 20 21 29 35 37 27 22 19 23 28 24 22 22 23 22 22 22 23 22 20 20 16 15 15 16 19 21 20 21 34 87 98 100 100 100 100 100 100 100 100 100 100 100 100 100 100 100

GFSSGP_250_rhum_090.txt.gz
RH
10 10 16 27 31 29 35 58 78 71 65 56 53 54 44 55 69 73 61 47 31 28 29 30 31 30 28 31 38 26 28 40 52 56 54 42 46 54 44 39 38 37 43 58 78 61 59 61 53
10 10 9 13 21 27 34 51 52 53 56 48 47 63 66 56 64 88 80 60 43 33 31 30 30 31 30 29 31 27 29 30 47 49 55 54 45 42 32 29 29 33 44 46 49 44 45 53 57
11 10 9 8 10 26 38 43 47 45 46 45 43 60 77 64 73 86 91 73 54 40 38 32 31 30 30 30 37 35 37 45 37 37 40 42 40 38 35 29 28 34 34 54 45 50 49 57 61
10 10 9 9 9 24 31 45 48 46 44 38 36 44 74 69 66 82 84 86 68 47 38 37 31 33 34 30 36 42 43 45 46 32 32 36 36 34 31 31 30 34 46 48 51 50 57 59 60
8 9 10 10 10 12 23 40 55 52 42 38 32 35 60 66 58 66 80 88 78 61 38 41 40 38 40 35 34 36 41 46 41 39 41 41 37 32 30 28 38 46 48 48 50 57 58 65 59
7 8 10 11 12 10 15 35 52 56 48 41 34 34 43 66 62 57 63 83 84 80 45 40 43 40 46 43 39 36 37 40 38 39 40 42 36 32 30 28 37 42 50 59 64 63 63 57 46
8 6 9 16 13 12 11 22 32 57 60 51 42 36 41 54 59 60 53 74 96 88 76 41 48 42 48 51 46 41 40 36 40 40 39 40 37 35 33 37 44 48 60 66 70 55 44 37 30
9 7 8 12 12 13 12 12 19 42 63 58 48 39 42 46 55 66 49 81 100 100 95 65 49 55 53 56 54 52 42 41 42 43 44 41 39 40 42 45 54 58 70 74 66 51 36 36 36
10 8 7 11 12 16 14 12 12 16 45 57 48 40 41 44 59 70 56 65 100 100 100 91 51 58 57 59 59 58 49 47 50 46 45 43 43 48 49 55 61 68 77 69 62 51 43 41 39
9 9 11 14 18 13 13 13 12 12 16 44 53 40 38 43 47 50 53 61 94 100 100 89 72 48 60 63 64 61 59 63 60 51 50 46 46 50 49 60 70 73 75 64 59 58 54 50 48
8 12 13 11 16 14 13 13 13 13 12 15 33 44 33 38 46 50 53 58 68 100 100 100 90 63 62 74 74 69 63 73 70 64 58 51 49 46 52 58 62 74 78 72 66 62 59 58 52
8 13 11 12 13 13 13 14 13 13 14 13 13 19 32 36 40 53 57 53 58 100 98 100 100 80 61 71 79 80 80 77 78 84 73 68 56 50 53 58 63 70 74 68 67 63 60 55 55
8 10 11 12 12 12 13 12 13 13 14 15 15 14 19 40 49 53 69 69 64 100 99 100 95 100 77 68 82 81 80 82 85 92 93 84 73 60 60 63 66 63 62 62 65 67 68 70 69
6 9 12 12 13 12 12 12 12 14 13 14 15 15 14 26 58 62 62 75 73 90 100 100 95 93 94 68 75 80 80 80 85 92 96 93 88 83 80 79 76 67 67 71 77 76 80 79 78
6 8 11 13 13 12 12 10 12 12 12 14 16 16 16 20 52 72 78 73 72 87 100 100 100 94 95 94 68 76 87 80 83 86 90 96 97 95 95 96 97 94 89 92 95 90 93 89 88
7 8 10 12 12 11 12 12 11 12 13 14 15 17 17 15 32 51 65 59 66 79 92 100 100 100 99 100 99 78 76 90 82 83 88 89 92 94 98 98 95 94 94 100 100 100 100 100 84
5 8 10 13 12 12 12 12 12 11 12 14 15 17 17 17 16 16 21 59 67 80 75 99 100 100 100 100 99 100 100 90 88 89 85 86 87 89 90 93 97 97 100 98 96 94 89 95 100
5 7 10 14 15 13 13 14 16 12 13 14 15 15 18 18 18 16 16 35 60 72 79 77 100 100 100 100 89 94 100 100 100 99 91 83 88 96 98 95 100 100 99 90 96 96 100 100 100
6 8 12 22 20 19 18 18 16 14 14 14 14 14 17 20 19 19 17 17 37 58 85 77 76 94 100 100 100 98 100 100 100 100 100 100 99 90 84 89 98 100 99 99 100 100 100 100 100
7 9 11 15 19 20 17 18 17 15 15 15 14 14 16 20 21 21 17 16 18 49 61 85 77 93 100 100 100 99 100 98 100 100 100 100 100 100 100 100 100 100 100 100 100 100 100 100 100
6 9 12 14 19 21 21 18 17 16 15 15 15 14 15 19 21 20 19 17 17 22 33 73 90 83 100 100 99 85 100 91 100 88 98 100 100 100 100 100 100 100 100 100 100 100 100 100 100
8 8 12 14 17 19 21 22 17 17 17 16 16 16 17 18 20 20 19 19 16 17 18 34 85 92 99 100 100 100 100 100 100 100 90 100 100 100 100 100 100 100 100 100 100 100 100 100 100
9 10 12 14 14 14 19 20 18 18 18 18 17 17 17 18 17 20 21 20 18 17 16 23 69 94 100 100 100 100 100 100 100 100 100 100 100 100 100 100 100 100 100 100 100 100 100 97 100
10 10 12 12 13 14 15 18 18 21 22 19 16 16 16 17 17 18 20 20 19 19 19 18 44 91 99 100 100 100 100 100 82 97 100 98 100 100 100 100 100 100 100 100 100 100 100 100 100
12 11 12 12 13 15 14 16 22 24 22 20 17 16 16 18 19 19 19 19 20 20 20 17 22 57 94 100 100 100 100 100 100 100 100 94 100 100 100 100 100 100 100 100 100 100 100 100 100
13 11 11 12 15 17 16 18 22 20 21 16 15 17 17 17 19 21 21 21 22 21 20 20 18 25 53 78 94 100 100 100 100 100 100 100 100 100 100 100 100 100 100 100 100 100 100 100 100
16 13 12 14 15 20 20 25 23 17 18 17 15 16 17 16 19 20 21 21 21 22 22 22 20 19 20 20 23 53 100 100 100 93 81 85 100 100 100 100 100 100 100 100 98 100 100 100 100
16 17 15 16 16 18 19 22 23 18 19 18 19 17 17 17 17 20 20 20 20 22 22 23 23 22 20 18 19 19 36 93 100 100 100 90 85 90 100 100 100 100 100 100 100 100 100 100 100
20 20 17 17 18 21 22 21 20 17 18 18 18 19 18 16 16 18 21 21 21 21 22 22 23 23 22 20 18 19 19 20 32 66 86 95 95 99 94 100 100 100 100 100 100 100 100 100 100
30 30 25 20 19 23 24 24 24 22 17 21 23 23 22 19 17 16 17 21 20 21 20 19 19 20 20 21 21 21 20 20 20 21 21 23 30 52 77 85 100 100 100 100 100 100 100 100 100

GFSSGP_250_rhum_093.txt.gz
RH
10 9 13 19 22 26 36 64 74 61 57 61 58 60 58 49 46 40 51 56 42 34 32 30 27 28 31 30 30 31 44 46 48 45 40 55 59 58 44 44 47 51 41 38 42 41 41 39 50
10 10 9 13 12 20 31 58 84 70 59 53 62 66 64 50 46 45 57 67 52 37 33 31 28 31 30 27 29 28 29 39 45 33 31 47 52 55 57 50 44 39 38 31 36 38 40 46 51
11 10 9 8 12 15 33 44 87 52 64 88 79 78 66 65 55 55 63 71 83 61 46 39 34 30 31 27 28 28 27 28 34 26 27 29 49 54 52 53 44 38 35 32 37 39 46 47 51
10 10 9 8 8 21 29 37 89 63 61 93 88 73 85 86 71 62 58 76 81 82 73 56 36 32 30 29 28 28 29 27 26 26 27 31 30 31 30 34 35 33 33 34 37 39 39 48 52
10 10 9 9 10 13 21 15 73 100 86 88 89 79 83 98 82 68 65 70 84 86 79 71 48 35 31 31 31 28 27 28 30 27 30 34 34 34 34 37 36 33 30 33 38 38 43 47 57
11 10 9 10 13 10 10 14 71 79 82 89 78 70 86 87 82 72 83 82 90 88 79 74 66 48 35 33 32 30 29 29 32 31 34 34 33 36 36 39 33 30 30 33 40 43 52 59 63
10 11 10 14 16 15 8 16 48 50 57 69 57 49 77 77 78 74 84 96 96 93 88 86 81 70 41 34 36 36 34 35 31 32 32 34 32 32 33 35 34 33 34 38 46 49 55 65 52
11 12 12 14 16 15 12 14 24 29 54 59 53 48 58 54 72 78 83 93 98 88 91 100 97 84 61 36 38 39 39 39 37 34 33 31 30 36 37 36 37 40 41 45 52 52 66 64 53
10 10 11 14 13 15 17 14 12 17 23 49 54 53 58 62 56 71 74 86 96 78 83 100 100 100 93 47 40 41 42 46 46 42 38 34 36 41 41 39 39 46 46 52 63 71 69 63 57
8 8 12 18 17 16 21 21 14 14 21 38 50 51 54 61 65 53 52 55 94 89 73 91 95 100 100 79 47 44 45 48 52 51 49 44 42 46 44 43 43 48 50 56 66 69 64 63 58
7 10 17 14 17 13 9 21 15 13 13 20 41 53 47 56 61 57 63 53 75 100 90 68 68 99 100 99 70 48 53 59 63 61 62 60 59 51 48 48 46 49 54 55 62 68 71 69 67
8 17 14 14 14 14 11 17 15 13 13 12 18 36 47 47 62 58 62 63 53 82 90 75 54 78 100 100 92 61 56 65 72 73 74 69 67 59 57 54 53 49 52 57 59 67 74 74 69
11 13 12 12 13 12 14 14 15 16 13 12 12 25 49 48 54 59 66 66 64 66 70 71 50 53 96 100 100 84 61 65 72 76 79 77 76 75 71 67 65 58 58 60 62 62 61 64 62
11 11 12 12 14 14 14 13 14 18 13 12 12 14 25 48 51 54 62 69 70 68 84 76 56 44 70 100 100 100 77 66 76 79 82 85 80 87 89 86 81 72 64 67 71 74 72 68 72
9 8 11 11 13 15 14 14 14 13 13 14 13 13 13 18 46 48 67 66 71 85 90 74 72 56 48 89 98 100 90 69 68 74 79 83 88 88 93 97 95 91 86 91 92 93 96 96 96
8 8 10 12 12 16 14 14 14 11 12 16 14 13 13 14 19 40 48 65 70 77 84 79 86 71 62 58 84 98 100 96 78 69 75 76 82 93 92 92 95 92 94 99 100 100 99 99 100
7 8 8 9 11 15 14 17 14 12 10 16 17 15 15 14 14 17 26 41 70 79 86 95 89 80 71 64 74 88 100 100 99 86 81 82 80 80 88 95 97 96 92 93 100 100 100 100 100
6 8 9 9 10 15 17 17 14 14 11 15 17 16 16 17 16 16 17 17 37 57 82 87 93 98 77 63 71 84 93 100 100 100 99 93 82 76 80 84 90 93 99 100 98 98 100 100 100
8 8 9 13 13 17 21 20 15 17 14 14 18 19 17 18 18 17 17 17 17 31 69 86 100 94 94 82 69 85 100 100 100 100 100 100 100 100 100 100 87 86 88 84 82 82 78 98 100
8 10 9 10 12 18 21 20 17 17 14 14 16 18 17 18 19 17 18 17 17 16 26 63 81 91 84 81 90 81 98 100 100 100 100 100 88 86 100 100 100 100 100 100 100 100 100 100 100
7 9 10 12 14 17 23 21 19 20 16 14 15 15 16 17 18 17 20 18 17 16 16 43 66 81 86 71 85 98 96 100 100 100 100 100 100 99 97 100 100 100 100 100 100 100 100 100 100
6 9 10 10 14 16 24 25 24 21 18 17 16 16 17 16 17 16 22 20 19 18 16 20 45 57 62 84 92 96 100 100 100 100 100 100 100 100 100 100 100 98 100 100 100 91 89 91 100
7 8 8 9 13 16 20 25 28 21 19 19 17 16 17 16 15 15 20 21 20 21 20 18 18 20 28 76 89 100 100 100 100 100 100 100 100 100 100 100 100 95 97 100 100 94 100 99 89
8 8 9 10 13 14 18 26 24 26 27 22 20 18 15 14 15 15 18 21 19 22 21 19 19 18 18 24 77 100 100 100 100 100 100 100 100 100 99 100 100 100 100 88 88 100 99 100 100
9 8 9 10 11 15 18 23 29 32 32 26 22 18 17 15 16 16 18 21 19 21 22 20 19 19 19 16 19 54 99 95 95 100 100 100 100 100 100 100 100 100 97 84 89 100 100 100 100
12 9 9 11 12 14 17 20 27 31 29 28 25 21 19 18 16 18 18 18 18 18 22 22 22 21 20 18 15 17 42 100 97 100 100 100 100 100 100 100 100 98 98 97 89 88 100 100 100
14 12 10 11 12 15 17 25 28 25 30 30 28 27 22 18 17 19 20 19 19 18 19 22 23 24 22 21 19 17 19 52 80 100 100 100 100 100 100 100 100 100 100 100 88 100 100 100 100
14 15 13 11 13 16 21 23 20 22 28 30 31 30 25 22 19 18 20 20 21 19 20 21 24 24 24 23 21 19 19 20 38 89 100 100 100 100 98 100 100 100 100 100 100 100 100 100 100
18 19 14 12 13 17 21 20 22 23 21 26 29 27 20 20 21 20 20 20 22 23 20 19 21 24 24 24 24 23 22 21 21 33 77 100 100 100 100 96 99 97 100 100 100 100 100 100 100
22 23 20 15 15 19 20 21 23 27 24 26 28 23 17 14 15 17 20 21 22 23 24 23 20 23 24 23 22 21 20 21 21 20 20 55 100 100 100 100 99 100 100 100 100 94 100 100 100

GFSSGP_250_rhum_096.txt.gz
RH
12 10 9 8 13 36 64 88 85 73 72 68 54 48 57 56 61 44 56 59 50 31 28 30 30 31 30 32 35 36 40 38 38 56 55 52 49 49 43 55 58 57 49 43 40 39 40 34 35
13 11 10 9 7 17 63 99 78 80 74 52 91 74 63 66 55 52 56 60 61 46 40 38 33 31 28 28 29 31 35 31 31 32 48 46 46 44 39 46 53 54 54 55 50 41 36 34 38
14 13 11 8 8 8 38 71 85 60 79 69 100 100 59 61 64 71 54 50 51 51 46 44 42 35 30 28 27 29 30 30 29 29 32 38 42 34 32 40 52 55 52 40 37 34 28 31 42
14 14 11 9 8 10 14 36 54 61 59 73 80 80 77 79 74 88 86 71 54 58 55 49 44 38 33 29 27 28 30 28 28 28 26 27 32 28 27 31 35 31 31 33 33 29 27 32 40
11 15 12 10 10 13 12 27 20 34 46 52 64 62 88 86 77 68 72 69 57 50 59 57 53 54 51 40 29 28 29 28 27 27 27 26 26 25 29 27 28 33 32 36 33 28 32 37 39
10 14 13 10 11 13 12 14 12 32 50 46 56 59 98 96 83 81 87 82 70 60 61 64 66 70 71 64 50 31 29 29 27 26 27 27 26 25 29 31 34 34 34 35 31 29 31 37 43
7 10 12 13 14 16 14 11 9 48 58 69 60 52 95 97 95 90 82 84 82 76 72 69 78 71 75 75 66 46 32 30 30 28 28 28 30 29 28 33 33 35 32 32 30 31 33 39 48
8 10 14 15 16 16 20 12 10 31 60 74 73 46 100 98 94 88 93 88 97 91 80 72 86 81 77 78 73 71 45 33 33 31 32 30 34 34 32 33 32 35 32 32 32 35 36 42 50
8 12 12 13 15 16 18 11 13 23 55 45 48 33 99 95 88 100 100 100 100 94 93 86 86 94 90 93 88 74 64 41 34 36 37 34 34 35 35 36 30 35 35 36 36 41 42 43 53
8 9 11 17 17 23 21 14 13 16 28 45 39 49 82 87 84 100 100 100 100 100 95 94 95 100 100 100 97 88 77 57 36 38 42 42 40 41 41 39 34 41 42 40 40 43 44 47 55
7 10 18 16 18 19 18 15 17 17 19 36 39 73 80 92 83 99 100 95 100 100 100 96 96 95 97 96 100 93 89 78 56 42 45 51 51 45 48 47 44 47 47 46 48 53 52 56 60
7 16 15 20 16 17 14 20 16 24 19 25 19 32 83 52 81 90 100 95 88 100 100 96 92 92 93 90 96 100 100 93 84 59 48 55 61 58 58 56 59 58 54 54 54 59 63 65 70
7 15 15 18 13 15 17 19 15 31 20 20 15 14 30 77 39 62 80 72 76 87 78 88 93 88 88 85 89 99 100 100 97 82 56 53 56 64 67 64 65 66 65 65 66 62 65 78 71
9 12 15 15 14 18 18 20 14 24 20 25 20 17 24 48 64 52 71 70 68 72 68 70 69 64 64 74 94 81 100 100 100 99 82 62 57 61 66 69 70 80 78 80 81 78 70 65 68
8 10 15 13 17 16 18 21 18 20 20 16 17 22 16 24 48 68 60 60 69 76 77 85 72 62 55 67 84 97 100 100 100 100 99 82 64 58 63 73 78 80 88 89 96 98 97 92 96
7 9 13 18 17 17 16 19 22 19 18 13 15 28 21 18 22 59 62 56 67 87 97 95 82 78 68 56 62 80 76 94 100 100 100 96 78 68 64 73 79 91 95 95 94 97 96 98 100
5 7 11 18 19 19 15 16 20 15 16 14 14 20 22 24 18 27 75 53 54 65 72 83 93 90 78 68 60 72 78 57 71 100 100 100 93 80 74 75 77 81 85 91 96 97 92 89 90
5 8 12 14 17 17 23 15 23 22 19 19 17 18 19 24 20 18 20 68 44 50 62 78 81 95 100 99 72 64 70 63 54 70 100 100 100 100 98 91 86 83 82 81 80 77 71 75 77
5 8 12 17 16 15 22 29 20 22 22 21 19 17 15 23 27 19 18 18 73 58 54 66 77 81 87 84 76 60 68 81 89 97 100 100 100 100 100 100 100 100 100 100 100 100 100 100 100
5 6 10 13 14 14 18 19 17 19 24 21 22 21 19 21 29 25 21 18 18 39 50 51 53 60 73 81 89 71 57 58 77 100 100 100 100 100 100 100 100 90 80 80 97 99 100 100 100
4 7 9 12 13 14 20 20 19 15 22 24 24 20 17 16 19 24 27 19 18 17 23 18 25 27 41 59 66 76 71 67 72 90 92 100 100 99 99 100 100 100 100 94 87 83 76 75 88
6 7 9 11 14 18 20 18 19 17 23 24 24 23 21 19 21 23 28 27 19 18 17 21 30 17 22 29 39 79 86 81 72 88 100 100 100 100 100 100 100 100 99 99 100 84 81 82 76
7 8 8 12 15 19 14 18 24 19 21 32 31 28 26 25 24 22 23 32 25 20 18 18 31 21 16 16 16 18 90 100 85 82 100 90 100 100 100 100 100 100 100 100 100 100 100 86 80
7 8 10 12 15 14 12 17 16 19 26 28 26 28 26 24 23 21 18 26 28 25 20 22 19 25 26 19 19 18 23 79 89 80 95 99 89 100 100 100 100 100 100 100 100 100 100 100 98
8 8 9 11 10 12 13 14 15 19 24 26 29 31 27 23 22 21 19 22 25 26 24 21 24 22 20 20 20 19 18 24 35 74 84 92 92 99 100 100 100 100 100 100 100 100 100 100 100
5 10 9 10 11 10 12 14 15 17 26 27 34 31 26 28 27 20 20 24 23 22 24 24 22 23 23 22 21 21 21 20 52 68 89 75 82 69 96 100 100 100 100 99 100 100 100 100 99
6 13 10 11 10 11 12 14 16 19 30 25 28 31 33 30 26 22 22 25 21 22 21 22 22 21 21 21 21 22 23 24 20 23 51 81 72 86 88 100 100 100 100 100 97 100 100 100 100
9 16 12 10 10 11 13 13 16 17 21 26 29 36 39 35 32 29 26 23 25 24 22 20 21 21 19 20 22 24 26 25 23 24 21 25 34 50 97 100 100 100 100 100 98 100 99 100 100
13 16 16 12 12 13 14 13 16 20 23 26 34 45 43 38 31 30 28 23 26 28 21 23 21 19 18 18 20 23 25 26 25 24 22 23 26 33 54 68 91 100 100 100 100 100 100 100 100
19 21 19 15 12 14 12 13 17 18 21 23 28 38 39 38 38 37 33 26 26 28 25 24 24 21 20 20 21 20 21 27 28 26 24 24 25 26 26 28 42 57 100 100 100 100 100 100 100

GFSSGP_250_rhum_099.txt.gz
RH
11 11 9 9 7 12 20 38 59 76 92 67 60 70 48 42 44 51 72 74 55 40 37 30 31 30 30 28 28 39 44 44 45 45 44 54 64 57 54 50 50 47 43 52 54 51 52 54 42
9 10 10 11 9 7 15 64 50 68 83 82 65 60 49 48 44 52 69 70 55 48 38 30 31 31 30 30 29 28 33 37 37 39 41 39 37 44 53 46 45 40 38 48 58 54 46 36 32
7 7 11 9 9 9 12 41 92 84 70 89 91 58 57 60 49 55 57 57 58 53 46 44 36 34 30 29 30 29 31 32 32 32 36 33 31 31 38 41 41 36 32 40 43 34 29 32 28
5 6 9 9 9 11 11 38 100 68 69 100 97 97 88 70 60 62 65 61 85 61 50 54 52 43 31 31 32 28 29 31 31 29 31 30 29 29 27 28 32 31 32 28 27 27 30 35 28
5 5 7 7 12 13 11 17 60 80 59 92 100 99 96 72 93 74 90 70 75 78 56 52 52 49 48 46 41 38 33 29 28 28 28 29 28 28 27 28 28 29 29 29 28 29 32 32 28
4 5 6 6 16 16 14 14 15 31 91 100 100 77 80 80 67 98 87 81 59 59 57 56 53 55 51 46 43 43 38 35 30 29 30 30 28 28 27 26 29 27 33 34 31 32 28 27 28
4 5 5 7 19 18 17 15 12 15 34 99 100 90 85 82 61 74 82 83 77 79 100 80 66 57 56 55 50 51 64 57 46 32 32 33 31 29 27 27 28 28 27 30 30 33 29 28 32
4 8 7 13 17 20 23 22 16 15 14 61 100 100 100 100 78 84 100 100 100 100 100 99 73 64 63 71 70 64 70 70 57 42 32 33 32 33 31 32 33 32 29 30 30 35 32 31 36
5 6 9 16 18 25 27 18 17 15 15 19 66 98 100 100 82 88 99 100 100 100 98 97 92 79 67 70 74 74 65 73 70 58 48 34 34 36 35 35 37 38 38 39 35 37 40 36 42
6 6 7 14 20 24 26 20 17 14 13 20 21 44 82 92 83 80 73 100 100 100 100 100 100 92 83 84 78 83 89 82 80 76 69 54 38 36 38 37 35 35 40 43 39 40 46 45 50
5 7 11 10 15 20 25 22 19 16 17 24 25 48 43 64 64 60 59 80 100 100 100 100 100 100 97 95 87 85 100 100 90 84 81 74 52 38 35 37 37 37 44 43 43 48 51 50 61
6 8 12 12 15 20 26 21 18 16 21 31 24 27 44 98 60 55 50 82 99 100 100 100 100 100 99 100 100 100 100 100 100 91 79 84 76 59 44 42 42 45 51 50 55 60 58 63 66
8 11 12 13 14 23 24 20 20 17 17 34 22 31 23 40 47 44 56 61 81 100 100 100 100 100 100 100 100 100 100 100 96 100 99 88 80 76 66 52 50 52 55 63 65 65 72 72 74
7 8 12 9 10 22 19 20 21 17 17 46 46 30 39 34 41 26 43 59 64 100 100 100 100 100 100 98 100 100 100 100 96 100 100 100 99 88 80 70 61 58 56 66 68 75 84 84 84
6 7 8 10 12 16 17 21 24 22 22 30 52 25 30 60 60 34 34 51 46 81 99 96 100 100 100 97 93 100 97 100 100 98 97 100 100 100 98 91 80 68 68 64 76 79 82 86 87
4 7 6 11 14 15 15 15 25 29 16 24 48 44 28 39 72 64 48 49 76 79 77 87 100 100 100 100 88 100 100 100 100 95 98 96 100 100 100 100 91 83 74 75 77 82 93 92 87
4 5 8 12 15 15 18 21 19 26 26 24 30 44 26 24 25 47 73 56 59 78 98 100 100 100 100 99 94 88 98 98 83 82 100 96 97 100 100 100 100 95 86 83 84 87 85 85 81
4 4 8 12 15 17 23 27 24 24 30 28 17 29 36 36 34 28 37 62 59 64 63 78 100 100 100 100 100 84 86 92 88 78 76 83 86 69 84 100 100 100 100 100 99 94 91 88 90
3 4 8 11 17 21 33 37 30 40 32 31 14 25 41 38 46 33 26 28 44 50 57 57 91 100 100 100 100 89 76 74 96 88 74 65 77 68 62 93 100 100 100 100 100 100 98 68 66
4 4 5 10 15 18 29 39 33 42 29 27 20 11 28 32 32 44 47 34 27 32 43 51 50 51 95 100 100 100 100 94 85 81 87 81 79 70 75 100 100 100 100 100 100 100 100 100 100
5 5 5 9 17 18 25 32 34 36 39 34 19 16 28 36 31 36 43 45 41 31 26 26 25 41 63 70 74 85 84 85 85 90 100 94 96 91 100 100 100 100 100 100 100 100 99 100 100
4 6 7 10 12 20 23 30 23 32 32 36 24 22 29 39 34 30 32 37 40 42 38 31 28 22 31 64 71 60 67 72 99 100 88 100 100 100 100 100 100 100 100 100 100 100 85 86 84
3 6 7 9 13 18 22 27 35 29 24 28 30 28 27 32 40 35 31 30 29 34 40 40 29 28 24 37 69 86 86 87 82 100 91 100 100 100 100 100 100 100 100 100 100 100 100 100 100
3 7 8 9 12 18 30 24 24 29 25 22 24 22 23 25 34 43 40 34 29 25 29 39 40 28 23 26 46 70 74 57 73 98 100 98 92 100 100 100 100 100 100 100 100 97 100 100 100
3 8 9 9 10 15 19 27 28 22 25 23 21 22 30 30 36 39 40 39 35 28 27 29 39 38 33 25 33 41 50 32 31 36 43 52 63 94 93 96 100 100 100 100 100 100 100 100 100
4 7 10 10 10 12 16 20 22 19 22 30 30 23 24 38 41 43 44 42 37 34 30 24 32 31 35 34 29 26 31 62 33 33 31 19 19 29 64 84 99 95 91 100 100 100 100 100 100
4 5 10 10 11 12 15 20 16 19 19 20 17 22 35 36 34 40 49 52 42 36 32 27 21 24 29 36 35 31 26 27 26 22 29 22 27 19 20 44 45 64 77 91 100 100 100 100 100
4 4 8 10 11 12 15 16 13 16 20 24 30 28 33 42 38 47 50 49 41 34 33 32 27 23 24 27 30 32 31 28 26 27 28 26 23 22 20 20 21 23 22 46 93 98 100 99 100
5 7 8 12 11 11 13 13 13 14 20 25 29 29 36 44 47 44 52 52 44 38 38 33 27 26 26 24 24 25 26 28 30 28 28 28 26 25 23 22 22 22 23 26 60 90 96 100 100
7 8 9 14 14 13 16 15 16 15 16 18 22 23 29 43 47 45 45 47 48 48 35 30 31 29 26 25 24 23 23 22 23 26 28 27 27 27 26 25 24 24 23 23 26 45 71 79 87

GFSSGP_250_rhum_102.txt.gz
RH
4 4 6 8 8 6 7 23 48 51 60 78 47 48 56 81 82 71 86 77 57 58 60 61 57 44 29 26 28 29 36 39 45 62 51 47 51 50 55 54 59 54 50 46 41 39 42 51 52
3 4 4 6 6 7 7 17 36 51 60 50 60 52 52 72 98 91 82 88 99 83 60 64 67 52 37 30 31 29 28 27 27 40 51 45 44 44 44 37 36 45 46 44 38 37 38 45 34
4 4 3 5 6 7 10 13 55 50 53 42 55 55 50 54 83 74 76 81 71 71 60 79 76 53 45 33 30 31 28 28 26 30 36 40 38 38 39 34 32 32 32 34 34 34 33 31 30
3 4 4 3 4 11 14 17 85 63 40 35 42 43 72 77 79 94 88 72 77 73 66 77 71 51 49 34 32 32 30 28 30 29 31 35 34 32 33 31 30 28 26 30 32 33 34 33 30
3 3 3 3 4 14 17 17 40 69 40 35 38 53 75 91 69 82 98 77 62 67 66 70 65 55 50 41 38 35 32 31 30 29 30 31 33 30 30 28 28 27 27 27 28 31 32 31 31
3 3 3 2 5 16 20 17 22 46 39 31 35 51 60 96 86 88 84 72 58 52 52 53 53 52 54 62 63 54 41 43 45 40 34 30 30 29 29 29 28 28 27 28 27 28 30 27 30
3 3 3 3 6 15 21 20 17 26 31 33 32 48 47 93 82 100 79 100 90 53 58 55 67 66 62 65 61 54 54 51 46 42 36 35 32 31 31 34 31 30 28 29 30 29 31 32 32
3 3 4 4 7 12 29 20 19 23 29 27 47 60 55 86 94 85 100 84 95 55 65 63 73 87 76 68 63 66 57 56 56 54 55 54 42 34 31 32 31 32 32 32 36 35 37 39 35
3 3 3 3 5 14 30 21 26 20 18 17 42 56 99 85 92 100 92 100 100 58 85 100 97 83 88 75 76 74 67 71 72 69 73 68 62 48 42 33 30 32 33 34 38 41 40 46 41
2 3 4 6 7 16 26 19 24 23 19 14 26 30 76 91 93 94 87 100 100 99 97 100 100 98 100 100 86 78 75 87 90 88 84 78 69 66 66 51 38 31 32 38 39 38 42 46 44
2 3 6 8 7 12 15 23 23 28 20 20 26 39 32 69 91 91 77 100 99 100 100 100 100 100 100 100 100 84 81 87 88 86 86 84 79 76 72 73 57 46 38 34 36 37 40 47 49
3 4 6 9 8 14 14 24 27 24 20 23 24 22 35 77 85 96 98 100 100 100 100 100 100 100 100 100 100 100 93 92 96 92 93 98 86 74 74 69 74 67 56 48 43 45 47 51 54
3 4 7 10 12 13 16 26 28 25 27 26 36 38 40 60 74 78 88 71 98 100 100 100 100 100 100 100 100 100 100 100 100 100 99 99 100 92 77 70 74 82 72 65 56 56 52 50 54
3 4 7 12 15 16 23 20 23 28 24 31 30 47 58 55 61 61 60 92 76 86 95 100 100 100 100 100 100 100 100 100 100 100 100 100 100 100 98 98 95 91 92 79 77 70 67 68 61
3 5 7 10 12 14 20 22 18 26 27 34 33 41 66 76 64 69 64 73 100 85 84 100 100 94 100 100 100 100 100 100 100 100 100 100 100 100 100 100 100 100 100 99 94 83 79 76 74
3 5 7 12 17 17 20 20 22 24 28 32 38 35 42 84 83 77 85 58 71 85 86 96 90 72 90 100 100 100 100 100 100 100 100 100 100 100 97 94 98 100 99 100 100 100 92 83 80
3 4 7 11 17 28 24 19 26 26 26 28 37 39 35 46 86 100 78 82 69 58 84 100 100 91 91 100 100 100 100 100 100 100 100 100 100 100 89 91 91 87 99 100 100 100 100 100 100
3 4 8 12 19 22 20 28 33 33 34 24 31 39 38 50 57 85 90 82 80 77 68 88 100 100 100 100 100 100 100 99 100 100 100 98 97 100 100 99 93 100 100 100 100 100 100 100 100
3 3 8 14 19 23 28 32 45 24 29 29 22 33 42 48 57 56 76 90 81 71 92 64 57 82 99 96 100 100 100 99 95 100 100 100 100 100 100 97 80 96 100 97 100 100 100 100 100
3 4 7 14 22 28 35 29 34 21 22 21 28 28 36 42 41 55 59 56 83 81 73 84 74 81 100 100 95 93 94 100 91 85 94 98 97 100 100 94 87 87 85 100 100 100 100 100 100
4 4 8 11 23 32 37 22 25 28 29 44 54 34 25 34 51 45 54 54 48 47 89 64 79 75 77 87 100 98 85 99 100 100 100 100 97 100 100 100 100 100 100 100 100 100 100 100 100
4 4 4 13 18 25 25 22 30 32 42 50 43 52 23 25 39 48 44 51 56 53 41 66 56 40 54 80 97 100 100 93 86 100 100 100 100 100 100 100 100 100 100 100 100 100 100 99 80
4 4 4 11 22 22 22 29 38 40 33 42 50 69 58 22 25 44 48 50 71 60 57 48 49 46 34 49 72 79 82 84 90 91 73 89 100 100 100 100 100 100 100 100 100 100 100 99 94
4 5 6 8 19 19 26 33 50 40 45 65 45 63 49 41 25 27 43 46 48 55 66 64 53 58 50 35 49 57 52 52 50 60 89 100 100 100 100 100 100 100 100 100 100 100 100 100 100
4 5 8 8 14 25 30 27 46 79 66 55 49 46 49 32 36 35 32 41 58 58 59 70 71 61 70 66 52 50 54 50 43 38 56 63 95 97 97 100 88 98 100 100 100 100 100 100 100
3 5 8 9 11 18 26 28 31 49 63 56 74 83 37 26 33 29 32 42 42 47 49 55 49 66 80 72 82 67 61 61 58 36 35 40 72 85 96 98 83 100 100 100 100 100 100 100 100
3 4 8 10 13 17 22 28 28 33 33 37 49 62 62 48 38 35 26 26 42 47 51 49 50 48 54 69 69 70 59 56 64 62 45 32 48 69 72 76 70 62 59 57 75 98 100 100 100
3 4 6 9 12 14 22 26 28 30 42 37 37 36 39 43 42 39 37 34 40 48 50 51 51 52 53 53 54 46 43 42 40 42 50 46 34 29 29 32 39 39 42 36 39 46 39 38 52
4 5 7 13 16 16 17 21 23 32 36 44 35 33 32 42 43 40 46 51 45 56 60 58 48 48 48 50 45 46 40 38 34 31 33 40 41 39 34 33 36 33 27 28 25 28 26 24 23
5 6 6 9 18 18 18 20 21 27 27 22 26 32 29 29 35 42 48 54 58 60 61 61 50 45 45 48 44 39 36 36 34 33 32 31 32 36 38 37 37 34 34 33 30 26 27 28 24

GFSSGP_250_rhum_105.txt.gz
RH
5 4 4 4 4 4 6 10 23 43 64 58 54 48 52 62 69 82 92 68 63 59 52 53 57 71 75 71 50 39 31 25 36 74 61 71 68 56 51 53 52 51 42 41 45 45 44 38 37
5 4 3 3 3 3 7 14 14 27 34 92 56 50 51 53 69 78 82 86 85 69 52 54 61 69 75 77 64 51 35 26 26 32 46 47 42 59 50 47 46 45 43 38 37 34 35 34 35
7 4 3 3 3 3 8 14 20 21 24 50 86 39 44 41 64 76 85 89 91 82 64 58 59 69 85 79 73 56 43 33 27 26 26 26 25 35 50 45 39 40 37 35 31 28 29 32 34
7 4 3 2 3 4 10 17 19 22 19 29 71 44 30 44 43 76 92 95 100 100 98 83 85 87 82 70 80 54 51 43 30 27 29 27 25 25 30 35 35 33 32 32 29 28 30 28 30
5 5 3 2 2 6 11 17 20 21 16 16 46 60 41 44 58 61 87 81 99 100 100 100 98 99 80 85 74 67 47 46 34 30 30 28 28 28 30 33 33 33 31 27 28 27 28 27 27
4 4 3 3 2 5 9 16 18 21 16 12 32 56 46 54 66 54 63 87 87 99 100 100 100 91 83 72 77 63 51 52 40 36 31 30 31 30 28 27 26 27 29 28 28 28 28 29 27
3 4 3 3 3 4 8 14 17 19 19 15 22 51 78 71 57 60 53 72 76 87 100 100 97 87 87 86 78 67 54 58 57 54 40 39 39 34 30 28 27 28 29 30 30 30 29 32 32
2 2 2 3 3 4 6 9 12 18 20 20 18 39 74 80 67 69 56 68 96 100 100 100 100 91 97 91 96 79 59 65 71 62 55 48 44 38 43 42 34 31 31 31 34 34 32 35 37
1 1 2 3 3 4 7 8 10 16 22 21 20 30 57 86 98 77 61 96 100 100 98 100 100 96 98 84 77 79 76 79 79 67 64 54 52 50 59 58 55 46 38 34 31 32 35 36 42
1 1 2 3 4 4 7 8 9 12 22 17 22 24 36 64 78 64 88 100 100 99 81 58 100 100 91 78 80 98 87 85 79 78 76 70 66 74 78 70 63 57 61 56 48 41 36 34 35
1 2 2 3 4 4 9 10 10 12 19 16 23 40 37 69 78 72 95 100 100 99 48 100 100 100 99 89 83 88 100 94 87 80 76 79 83 79 76 69 63 62 60 62 58 59 53 49 41
1 2 3 4 5 5 8 14 13 16 12 21 26 30 51 63 86 100 90 100 100 100 100 98 81 100 100 100 100 100 100 100 100 93 83 78 78 77 71 72 68 66 68 66 68 64 65 65 61
2 2 3 5 6 5 13 24 19 19 16 30 27 52 34 58 70 90 100 98 100 100 95 54 60 82 96 100 100 100 100 100 100 100 98 90 87 84 84 83 90 78 78 76 80 79 75 77 73
2 3 4 5 5 8 16 32 22 24 18 25 30 46 69 45 62 70 99 94 100 100 100 100 100 77 72 100 100 100 100 100 100 100 100 100 100 100 99 100 100 100 97 88 98 100 94 96 88
2 2 4 5 6 8 16 28 15 24 22 22 30 48 64 88 59 71 67 82 100 100 100 100 85 77 90 100 99 99 100 100 100 100 100 100 100 100 100 100 92 100 100 100 96 100 100 99 100
2 2 3 6 6 10 14 51 35 30 21 22 34 42 46 91 89 72 85 100 97 98 100 95 98 78 100 100 100 100 100 100 99 100 100 100 100 100 100 100 100 98 94 93 100 98 100 100 100
2 2 3 4 7 16 19 30 67 23 20 25 40 42 44 48 100 97 85 97 96 100 100 100 100 100 93 97 100 100 100 100 100 100 100 100 100 100 100 100 100 100 100 100 100 100 100 100 100
2 3 4 5 6 9 21 30 56 29 22 24 30 33 43 52 87 100 98 98 100 100 100 100 100 100 100 100 100 100 100 100 100 100 100 100 100 100 100 100 100 100 99 100 100 100 100 100 100
3 3 4 5 7 13 20 27 39 90 36 31 33 40 38 52 48 91 100 93 100 100 100 100 100 100 100 100 100 100 100 100 100 100 100 100 100 100 100 100 100 100 100 99 100 100 100 100 100
3 4 4 5 6 14 14 34 40 77 40 25 29 38 42 44 39 56 94 100 100 100 100 100 98 100 100 100 100 100 100 100 98 100 100 89 98 100 100 100 100 100 97 97 98 100 100 100 100
4 4 4 5 8 10 18 37 38 37 34 93 34 25 45 42 42 53 67 88 93 92 92 93 87 89 100 100 100 100 100 100 100 100 100 100 100 100 100 100 99 100 100 100 100 100 100 100 100
3 5 5 5 7 11 16 34 61 62 49 70 35 35 33 40 44 50 66 79 72 96 100 100 99 100 100 100 92 100 100 100 100 100 100 90 78 79 98 100 100 100 100 100 100 100 100 100 100
4 4 5 7 9 11 16 28 61 78 70 70 53 22 34 39 40 48 57 73 74 86 77 93 100 82 97 90 87 100 100 100 100 98 100 94 96 73 88 100 100 100 100 100 100 100 100 100 100
4 5 6 8 16 18 22 26 54 92 76 80 50 53 33 39 47 54 66 63 73 72 81 71 78 66 82 76 78 91 98 100 100 100 100 85 93 100 100 100 100 100 100 95 84 100 100 99 79
4 5 6 7 14 25 26 39 54 50 55 100 89 54 35 34 38 52 53 66 68 83 83 81 95 73 84 87 72 65 71 66 76 100 100 100 100 100 100 100 91 96 100 82 70 82 100 100 100
4 6 6 6 9 19 27 39 49 51 71 79 82 45 33 44 35 35 66 70 65 78 78 80 71 79 99 92 98 74 59 48 52 50 67 87 98 100 98 100 98 97 89 88 100 98 95 99 100
4 6 8 10 12 17 34 47 54 45 51 66 72 64 68 98 76 61 36 41 74 79 68 79 86 84 79 65 73 92 82 91 57 59 73 71 64 50 55 61 60 64 65 54 55 68 78 91 100
4 5 9 14 13 26 35 47 56 54 50 61 73 79 100 100 99 74 48 36 35 45 57 81 60 69 81 87 81 89 85 99 99 80 86 100 85 75 66 59 52 48 50 53 50 50 48 59 80
4 6 6 12 18 26 33 50 69 66 74 68 56 61 68 92 96 82 78 53 40 34 31 43 64 78 77 70 73 79 84 100 100 97 96 87 99 91 71 69 67 64 59 54 54 53 50 45 49
4 6 7 10 15 20 36 43 58 85 73 78 78 60 51 54 66 97 64 71 54 37 36 32 32 42 53 57 57 68 76 72 80 70 72 65 68 88 96 69 55 50 55 58 50 43 44 46 48

GFSSGP_250_rhum_108.txt.gz
RH
10 10 8 6 4 3 3 7 13 16 46 43 71 66 63 55 57 60 76 84 69 61 62 66 58 58 52 56 66 67 65 67 85 79 41 46 77 68 71 60 54 49 48 50 49 48 42 37 31
10 10 8 5 3 3 3 9 12 17 22 59 78 64 76 62 55 63 59 65 74 63 72 68 59 59 60 61 65 69 66 57 59 44 29 27 36 63 61 57 55 52 48 44 43 40 39 36 29
10 10 8 5 4 4 3 8 12 16 20 26 39 59 90 67 61 79 74 64 82 78 65 76 71 61 64 67 70 67 57 64 61 49 32 28 27 27 29 32 31 44 49 41 38 35 33 31 28
9 8 8 7 6 4 4 6 10 13 17 21 36 49 76 94 74 77 79 77 75 95 90 74 75 66 56 54 60 61 57 63 77 52 39 33 26 30 26 25 26 29 32 34 36 33 31 28 28
7 7 7 6 7 5 4 5 8 9 12 18 25 58 60 91 77 75 69 80 81 86 95 98 100 87 67 56 54 58 64 64 63 63 51 36 29 29 29 28 27 26 30 33 32 30 29 28 28
5 6 6 6 6 5 3 4 5 6 8 12 22 32 76 85 80 72 62 78 75 76 89 96 97 95 84 72 64 63 66 58 54 65 64 48 33 32 29 30 28 27 27 25 26 27 30 32 31
4 4 4 4 4 4 3 3 3 5 6 8 18 30 92 87 64 76 62 63 75 71 82 96 100 100 96 85 86 90 92 70 67 68 57 56 42 48 35 35 33 31 29 26 26 26 28 29 30
3 2 2 2 3 4 4 3 4 4 4 7 14 28 76 100 79 55 74 57 68 60 73 88 99 100 100 100 100 100 100 99 79 65 57 59 63 61 48 40 39 40 44 39 31 29 28 28 28
2 2 2 2 2 5 3 3 4 5 4 5 8 24 61 99 83 98 63 85 67 76 73 87 90 95 100 100 100 100 100 97 86 80 66 66 68 65 51 42 40 44 49 52 47 48 46 45 44
2 2 1 1 1 2 2 3 4 5 4 4 9 18 31 96 91 44 60 100 88 76 85 100 100 99 100 100 100 100 94 97 88 93 77 73 70 65 58 51 48 49 55 52 51 48 47 49 49
1 1 1 1 1 1 2 3 4 4 5 4 8 18 24 31 70 68 100 88 100 94 94 100 100 100 100 96 100 100 98 87 88 80 90 82 69 66 59 57 56 62 59 54 59 60 56 58 57
1 1 1 1 1 1 2 3 3 4 5 5 9 13 28 27 70 100 100 75 100 88 100 100 100 100 100 100 96 96 100 100 86 89 100 93 82 77 70 69 62 61 63 64 64 72 66 66 66
1 1 1 1 1 2 2 4 3 5 6 7 8 14 53 42 39 56 96 98 100 92 100 100 100 96 83 84 88 70 98 100 88 94 100 100 100 100 92 78 77 76 75 80 87 95 84 84 87
1 1 1 1 2 2 3 4 5 7 9 10 10 14 47 76 71 63 89 82 96 100 100 100 100 86 99 92 77 89 100 100 100 100 100 100 100 100 100 100 100 100 99 100 100 94 90 90 90
1 1 1 1 2 3 4 5 6 11 10 14 11 18 36 63 83 75 82 80 100 100 100 100 100 100 99 47 56 100 100 100 100 100 100 100 100 100 100 100 100 100 100 91 88 93 96 88 87
1 1 1 2 2 3 4 9 12 15 12 12 11 32 38 87 70 91 50 65 93 100 100 100 99 92 71 56 29 39 45 58 100 100 100 100 100 100 100 99 99 100 100 100 100 100 100 87 87
1 1 2 2 3 4 6 14 16 28 20 27 14 31 42 70 80 100 81 60 74 100 100 100 97 83 63 64 56 45 44 53 61 74 100 100 100 99 100 100 98 100 100 96 100 100 100 95 100
1 1 2 2 4 5 8 12 26 52 20 22 22 35 45 44 66 99 100 97 100 100 100 100 100 100 84 67 70 70 71 78 70 81 96 97 100 99 100 100 100 100 100 100 100 100 100 99 100
1 2 2 3 5 9 13 16 28 52 41 21 28 28 44 30 66 94 100 100 100 100 100 100 100 100 100 100 100 100 100 100 100 98 100 100 100 100 100 100 100 100 100 100 100 100 100 87 80
1 2 3 4 6 12 17 23 35 80 41 25 27 29 53 35 46 71 100 100 100 100 100 100 100 95 100 100 100 100 100 100 100 100 100 100 100 100 100 100 100 100 97 99 98 100 100 100 100
2 2 3 6 8 14 18 34 57 95 66 34 39 30 59 43 47 56 96 100 100 100 100 100 100 100 90 100 100 100 100 100 100 100 100 99 99 100 100 100 100 100 94 100 100 100 100 100 100
3 3 4 5 8 12 17 38 96 91 100 41 41 35 52 58 39 43 83 100 99 100 100 100 79 90 98 100 97 100 100 100 100 100 100 100 100 100 92 75 72 84 95 100 100 100 100 100 100
3 4 5 6 7 10 11 37 64 87 82 62 48 46 50 48 50 42 74 96 99 100 100 96 100 100 100 94 100 100 100 99 100 100 100 81 100 100 95 86 94 100 100 100 100 100 100 100 78
4 5 5 6 7 9 18 33 60 65 100 97 62 44 57 55 58 48 52 100 100 96 100 100 100 100 100 100 99 100 100 100 100 100 100 100 97 74 100 100 100 100 100 100 100 100 99 79 76
4 5 5 6 9 9 15 29 52 74 100 100 99 97 62 69 51 77 58 55 100 100 85 100 100 100 100 100 100 100 100 100 100 100 100 100 100 100 100 100 100 100 94 100 90 98 100 99 95
5 6 5 7 8 12 11 19 34 84 100 100 100 100 70 67 63 61 91 75 67 100 100 100 100 100 100 100 100 100 100 100 100 100 100 100 100 100 100 100 100 100 92 99 100 100 100 100 100
6 6 6 8 10 12 14 21 34 48 97 100 100 100 90 56 83 87 71 68 78 100 100 100 79 86 94 100 88 99 94 100 100 100 100 100 100 100 100 100 100 100 100 100 100 100 100 100 100
6 8 7 8 10 12 15 28 52 49 79 100 100 100 100 85 48 95 100 100 82 96 100 100 100 82 65 95 99 100 100 96 97 96 100 100 100 100 100 100 100 99 97 100 100 100 100 98 86
8 8 9 11 12 14 20 32 52 73 72 86 100 100 100 100 85 58 76 96 90 92 96 90 100 99 90 100 89 84 100 100 98 98 74 90 100 100 100 100 100 90 100 100 100 94 89 70 69
7 10 11 13 14 14 25 43 55 69 96 86 100 100 100 100 96 75 66 79 91 91 86 72 69 100 100 100 100 87 99 100 100 94 100 100 100 100 100 96 83 74 68 61 56 56 67 73 80

GFSSGP_250_rhum_111.txt.gz
RH
32 24 17 15 11 9 9 8 6 7 10 14 20 33 60 78 81 86 91 64 60 75 78 83 74 59 73 91 84 82 74 71 74 68 68 72 88 70 69 76 69 70 63 55 48 44 43 43 40
31 27 18 14 11 10 11 8 6 5 8 11 12 17 25 60 74 72 76 67 59 65 70 79 74 66 55 65 74 75 66 64 60 62 64 71 79 42 24 34 66 60 61 51 50 49 45 39 34
23 27 19 15 11 11 10 9 7 5 6 8 8 11 15 39 73 76 77 84 70 60 71 88 73 65 58 60 62 54 50 50 52 52 56 54 55 35 27 24 27 30 32 29 35 39 40 36 34
16 18 14 16 14 10 11 8 5 5 4 5 6 8 14 36 78 89 77 79 84 75 76 95 79 67 63 67 62 56 52 51 47 46 43 41 49 39 35 27 25 25 24 24 25 26 34 35 32
12 13 15 16 16 12 10 8 6 4 4 4 5 8 16 21 61 94 83 80 70 84 79 100 94 78 62 62 60 57 54 51 42 43 42 52 56 49 40 29 28 26 26 26 24 25 25 25 24
10 10 13 16 15 12 10 8 5 4 3 4 4 6 11 13 63 99 88 87 78 83 86 94 98 93 77 67 69 67 62 58 51 41 47 58 50 54 47 32 31 28 28 26 26 24 24 24 25
8 7 9 13 14 12 11 7 5 4 4 3 4 5 8 13 63 48 100 100 90 90 91 87 97 100 95 85 77 73 69 64 60 57 57 50 52 50 48 37 44 42 32 33 33 33 29 28 29
7 7 9 10 11 12 10 6 5 4 3 3 3 5 8 20 22 36 91 88 88 87 93 86 89 96 100 99 99 93 91 74 74 79 82 73 60 53 52 50 55 47 39 32 36 47 46 43 43
6 6 8 8 8 9 4 5 6 4 3 3 2 4 8 8 21 35 57 99 93 89 83 87 87 93 97 99 100 100 100 86 86 98 96 85 75 68 68 56 57 51 41 36 39 47 48 47 43
5 5 6 6 6 5 4 4 4 3 3 2 3 3 7 11 52 35 42 100 100 100 82 78 91 91 98 99 100 100 100 100 100 100 95 87 85 76 74 61 59 54 52 47 47 54 52 48 50
4 4 3 3 3 3 3 4 4 3 2 2 2 3 6 12 98 99 48 100 100 100 100 84 68 88 100 100 100 100 100 100 100 100 93 78 80 77 67 65 61 58 56 52 56 62 61 58 59
2 2 2 2 2 2 2 2 2 2 3 2 2 3 7 27 42 85 46 81 100 82 90 100 99 87 100 100 100 100 100 100 100 100 100 89 78 76 85 70 66 69 70 64 57 62 68 74 84
1 1 1 1 1 1 2 2 2 2 2 2 2 3 7 52 59 100 49 100 99 98 98 100 100 100 93 100 100 100 100 100 97 99 100 93 75 83 100 100 93 98 96 90 82 80 87 84 87
1 1 1 1 1 1 1 1 1 2 2 2 1 3 8 46 87 95 91 99 100 100 100 100 100 100 100 100 100 100 100 100 100 94 91 82 90 95 100 100 100 100 100 100 100 100 84 86 79
1 1 1 1 1 1 1 1 2 2 2 2 2 3 9 51 90 78 100 96 100 100 100 100 100 100 100 100 100 100 100 100 93 83 84 87 96 100 85 86 88 82 95 100 96 99 100 100 100
1 1 1 1 1 1 1 2 2 2 3 3 2 4 12 50 81 97 100 100 99 98 100 100 100 100 100 100 100 100 100 97 88 62 62 100 100 100 100 96 99 97 99 100 81 90 92 95 92
1 1 1 1 1 1 2 2 2 4 5 4 4 5 13 59 85 98 100 100 100 100 100 100 100 97 100 100 100 100 89 100 74 54 83 100 100 80 100 100 100 100 100 100 100 100 100 100 100
1 1 1 1 1 1 2 2 3 5 6 6 6 5 15 52 95 100 100 100 100 100 100 100 100 100 98 100 100 88 82 74 49 37 54 100 69 57 63 80 89 99 100 100 100 100 100 100 96
1 1 1 2 2 2 2 3 3 4 8 8 6 7 17 68 100 100 100 100 100 100 100 100 100 100 100 100 93 75 63 60 59 60 58 58 67 92 100 100 100 100 100 100 100 100 100 100 100
1 1 2 2 2 2 2 3 4 7 12 11 10 8 18 44 98 100 100 100 100 100 100 99 100 100 91 89 71 59 64 68 74 96 100 100 100 100 100 100 100 100 100 100 100 100 100 100 100
2 2 2 2 2 3 3 4 6 8 18 15 11 8 19 49 92 100 100 99 100 100 99 100 100 100 63 65 98 98 100 100 100 100 100 100 100 98 97 100 100 92 88 82 77 94 100 100 100
2 2 2 2 4 4 5 7 8 12 16 15 11 9 20 42 58 98 100 100 100 100 100 99 90 100 100 100 100 100 94 83 92 81 92 100 100 100 99 100 96 86 70 73 96 87 86 84 89
2 2 3 4 6 8 8 8 14 18 18 15 18 14 24 41 48 95 100 100 100 100 100 100 100 100 100 100 100 100 100 100 100 100 77 82 99 76 50 60 78 64 66 75 77 100 90 67 61
2 3 4 5 6 6 12 16 20 41 40 29 32 27 29 43 76 78 98 100 100 86 100 100 100 100 100 100 100 100 100 100 100 100 100 100 100 100 100 100 100 100 100 100 97 100 100 99 81
3 3 4 5 8 9 13 27 35 32 51 75 58 76 47 51 52 92 100 100 100 81 91 100 100 100 100 100 100 100 100 100 93 100 100 100 100 100 100 100 89 100 97 100 93 82 83 100 100
4 4 6 6 8 8 16 30 38 47 59 63 52 100 99 53 56 62 78 100 100 100 100 100 99 97 94 100 100 100 100 100 99 100 100 100 100 100 100 100 100 100 100 100 100 100 100 100 100
6 6 6 6 8 15 17 26 51 68 64 83 61 99 100 98 50 44 62 100 100 94 100 100 100 99 100 100 100 100 100 100 99 100 100 100 100 100 100 100 100 100 97 100 98 99 100 100 100
6 8 10 10 14 16 24 34 47 86 100 100 100 76 71 95 80 44 44 69 99 100 100 100 90 100 100 100 100 99 100 100 100 100 100 100 100 100 100 100 96 100 99 100 100 100 100 100 100
7 9 11 13 18 19 22 37 53 71 69 85 100 98 100 100 99 56 50 55 70 100 100 100 100 83 100 100 100 100 92 100 100 100 100 100 100 100 90 89 85 100 97 100 100 100 100 100 100
7 8 11 16 22 23 48 49 64 74 72 94 99 100 100 100 100 100 79 55 63 86 100 100 100 100 88 100 100 100 100 100 100 99 94 89 96 100 100 100 100 100 100 100 100 100 100 100 100

GFSSGP_250_rhum_117.txt.gz
RH
40 40 38 45 46 45 39 24 8 8 9 10 12 13 14 14 20 39 85 74 67 71 66 86 84 80 68 60 61 59 48 40 63 64 57 67 73 83 82 78 68 72 78 67 62 61 66 65 61
32 31 30 37 34 36 38 31 15 8 7 8 10 11 13 13 12 24 63 81 61 59 66 80 87 87 78 69 64 66 62 52 43 41 63 57 66 59 67 74 60 65 61 42 24 21 31 32 25
31 28 25 28 37 36 31 40 29 11 8 7 8 9 10 13 10 12 23 57 62 55 58 75 94 97 83 79 71 63 70 63 67 46 42 48 49 61 64 62 50 51 47 35 26 22 21 22 23
27 23 20 23 39 47 32 29 34 17 15 6 6 6 8 10 9 12 12 21 47 55 51 55 72 100 93 84 78 72 75 74 69 60 44 42 43 48 52 47 37 37 38 32 27 26 24 24 23
24 20 15 24 33 31 34 28 27 29 26 10 4 5 6 7 10 12 12 13 21 44 50 56 64 97 100 93 83 74 74 84 74 68 58 41 37 36 38 33 34 38 42 40 33 27 25 26 26
16 17 13 17 24 31 34 32 32 30 29 14 6 4 4 5 8 12 12 12 13 21 45 50 65 79 100 100 94 83 69 82 82 74 68 49 40 40 34 34 32 34 41 42 37 34 33 30 31
19 12 10 14 19 23 30 30 28 28 28 25 12 4 4 4 6 10 12 11 12 14 34 44 60 66 95 100 100 94 85 79 84 80 70 59 47 48 50 46 37 43 45 45 48 52 42 38 40
13 11 11 12 13 19 22 29 30 30 36 29 9 5 6 4 5 6 9 11 11 11 12 75 60 61 75 100 100 100 97 94 82 79 74 64 55 56 57 55 49 48 57 57 55 58 52 40 37
16 9 8 9 10 13 16 22 27 29 30 22 8 6 9 3 5 6 12 29 10 10 11 51 98 60 70 90 100 100 97 92 87 82 82 72 60 59 57 60 62 60 68 69 71 58 54 47 43
13 6 8 10 8 10 14 15 15 16 22 17 6 7 9 2 4 5 9 38 44 14 21 61 100 96 66 80 96 100 100 88 90 86 86 84 71 66 64 81 81 87 71 74 73 59 49 51 49
9 6 8 9 8 9 13 13 12 11 17 15 10 8 6 2 3 4 8 16 41 46 20 51 86 100 95 72 83 91 100 100 100 94 89 91 81 82 77 82 91 85 78 70 73 55 63 58 56
5 6 9 8 9 10 9 9 10 7 14 9 4 5 2 2 3 4 10 13 38 47 12 99 84 100 100 98 83 93 99 100 100 100 98 92 82 84 80 90 93 90 67 74 65 64 69 74 80
5 7 8 8 9 9 7 7 7 6 9 7 4 4 2 2 4 5 12 14 21 56 29 57 94 93 100 96 84 80 94 95 100 99 99 94 97 98 88 81 100 100 100 100 74 72 95 100 100
8 8 7 9 7 5 5 5 4 6 6 4 4 4 3 3 4 5 13 14 16 81 59 46 100 100 100 97 86 71 77 90 91 100 100 100 100 100 100 97 95 100 100 100 82 83 97 97 95
7 8 9 8 5 4 3 4 4 6 3 3 2 2 2 4 4 7 12 16 28 79 72 35 100 100 100 100 100 89 74 74 84 90 94 93 100 99 100 97 90 84 86 86 78 74 79 100 98
7 6 4 4 2 2 2 3 3 3 3 3 2 2 2 3 4 8 13 18 32 99 94 100 100 98 92 100 89 100 100 99 88 90 81 92 97 100 100 100 100 100 86 77 75 83 100 100 100
5 3 2 2 2 1 2 2 1 2 2 2 2 2 2 2 4 8 10 15 25 42 96 100 100 98 100 92 80 73 100 100 100 100 100 100 88 100 100 100 100 100 90 79 76 79 100 100 100
3 2 2 1 1 1 1 1 1 1 1 2 2 2 2 2 4 6 10 18 70 58 94 100 100 100 100 89 92 99 100 100 100 100 100 100 100 100 100 100 100 100 89 73 86 100 100 100 96
2 1 1 1 1 1 1 1 1 1 1 1 1 1 2 2 4 7 10 19 30 50 96 100 100 100 95 94 100 100 100 100 99 88 89 100 100 100 100 99 100 100 100 92 88 80 74 76 90
1 1 1 1 1 1 1 1 1 1 1 1 1 1 2 3 4 7 8 12 58 83 100 100 100 100 97 100 100 100 100 100 91 76 72 100 100 100 100 100 95 85 77 77 75 79 96 93 88
1 1 1 1 1 1 1 1 1 1 1 1 1 2 2 3 5 6 10 61 99 100 100 97 100 97 90 98 100 100 100 95 89 54 72 100 100 100 98 89 67 99 100 100 100 95 97 82 64
1 1 1 1 1 1 1 1 1 1 1 1 2 2 2 3 4 9 13 97 100 100 100 82 100 100 100 100 100 100 100 89 62 75 70 75 98 92 78 80 99 100 100 100 100 83 71 85 76
1 1 1 1 2 2 2 2 1 1 1 1 2 2 3 3 7 14 84 100 100 100 100 100 100 100 100 100 100 100 100 99 68 44 48 82 82 77 87 100 100 100 100 100 88 83 82 73 74
1 1 1 2 2 2 2 2 2 1 2 2 3 4 4 4 11 90 100 100 100 100 100 100 100 99 100 100 100 100 100 94 78 57 56 62 69 86 100 100 100 100 100 100 72 63 85 79 56
1 2 2 2 2 2 2 2 2 2 2 4 5 6 6 10 14 93 100 100 100 100 100 100 100 100 100 100 96 100 98 100 79 56 55 57 53 99 100 100 100 100 100 100 98 100 99 97 100
2 2 3 3 3 3 3 4 3 2 4 6 8 9 11 20 53 78 100 100 100 100 96 100 100 100 100 100 100 100 96 100 80 62 64 65 92 100 100 100 100 98 93 100 100 100 100 97 99
2 4 4 4 4 4 3 3 3 3 6 10 12 24 39 100 100 100 100 100 100 73 99 100 100 100 100 100 100 100 83 91 100 100 100 100 100 91 93 100 100 100 100 100 100 100 100 100 98
4 4 5 6 5 4 4 4 4 4 9 10 14 40 100 100 100 100 100 100 91 92 99 100 100 100 100 100 100 100 100 100 100 100 100 100 100 100 98 100 100 100 100 100 100 100 100 100 100
5 6 9 9 8 6 5 4 5 5 13 15 20 48 100 100 100 100 100 100 98 89 100 100 100 100 100 100 100 100 100 100 100 100 100 100 100 100 100 100 100 100 100 100 100 100 100 98 100
6 8 11 13 12 11 7 5 6 6 12 20 25 100 100 100 100 100 100 100 100 100 100 100 100 100 100 100 100 100 100 100 100 100 95 100 100 100 100 100 100 100 100 100 100 98 98 90 75

GFSSGP_250_rhum_120.txt.gz
RH
43 46 42 41 45 63 63 51 26 16 8 15 15 14 16 18 17 18 22 45 85 62 60 43 60 63 68 72 68 58 57 50 57 83 59 83 78 75 71 69 81 80 76 64 67 53 33 24 22
37 42 36 32 33 44 82 86 41 24 12 12 11 12 15 15 12 15 18 25 85 85 50 56 47 61 68 81 75 66 62 59 52 47 57 51 64 63 62 69 74 72 70 56 55 47 34 23 20
43 32 30 29 28 39 51 59 64 33 24 15 9 9 12 14 11 12 15 18 56 99 92 52 48 52 64 86 89 78 69 64 61 56 47 39 44 48 51 64 62 66 59 47 42 37 28 24 22
38 36 30 23 24 29 36 48 64 57 33 21 18 10 8 8 10 14 14 16 18 45 44 57 43 46 56 75 92 87 75 72 70 61 58 52 39 35 37 38 50 54 43 38 36 35 33 28 24
34 31 22 23 22 23 25 36 48 65 53 42 26 26 10 6 9 11 16 13 19 33 60 91 62 47 53 66 81 92 84 78 78 70 67 66 55 45 36 35 38 39 38 39 42 41 36 33 28
37 32 22 19 19 20 20 27 36 52 55 42 53 52 20 4 6 10 13 11 15 23 69 69 38 39 44 62 85 86 89 79 82 79 71 74 67 57 49 38 37 36 36 34 37 43 40 37 39
29 25 16 14 20 19 22 21 28 37 47 52 45 43 32 10 6 8 9 15 15 16 14 19 22 28 41 52 82 100 94 82 76 85 83 74 71 63 60 52 46 46 43 42 42 47 47 45 44
25 19 18 13 10 14 15 16 25 26 35 38 46 44 39 28 6 10 44 13 16 16 13 13 14 16 26 45 53 97 100 98 79 81 85 79 78 73 68 61 49 50 54 49 51 56 54 53 48
19 12 13 17 9 8 10 14 18 19 24 37 37 36 37 31 13 11 13 61 54 18 24 12 13 15 30 35 58 60 95 100 93 81 77 82 79 75 76 64 50 52 54 52 50 61 64 59 51
25 14 10 10 9 8 9 10 12 16 20 24 30 33 33 32 28 12 9 9 81 76 51 24 14 12 17 56 62 64 70 100 100 93 81 84 80 69 73 70 54 51 55 69 64 59 64 61 48
31 22 16 13 8 8 8 10 11 13 15 18 21 32 33 33 22 14 12 8 10 80 69 39 20 13 27 46 94 85 68 76 100 100 100 84 79 84 74 68 64 65 69 80 74 69 68 58 54
32 24 17 10 8 6 9 8 8 10 14 12 14 27 32 34 23 18 12 5 6 34 65 56 34 20 87 98 89 100 96 74 91 100 100 100 97 86 77 69 65 71 79 87 74 73 80 81 62
26 18 12 9 8 8 7 6 9 12 12 12 13 14 23 23 20 17 8 6 5 11 37 29 28 94 100 100 86 85 100 92 78 90 100 100 99 93 90 91 82 68 67 72 100 100 100 99 80
19 14 9 8 9 7 6 7 8 9 12 10 9 11 13 11 11 8 8 4 5 10 20 37 45 100 100 99 93 94 100 100 82 72 84 99 100 94 84 88 99 97 88 74 86 100 100 100 100
15 9 7 13 8 5 5 7 10 9 8 6 7 9 9 8 8 6 6 4 5 9 18 33 20 98 100 100 100 97 100 100 100 99 100 86 90 97 98 98 97 100 100 100 89 74 84 86 80
12 7 8 12 8 11 7 6 7 5 5 4 5 6 5 5 5 2 2 3 5 10 17 24 37 65 100 100 96 100 100 100 100 100 100 93 86 89 100 100 100 100 100 100 100 100 100 97 84
11 7 8 10 12 6 5 4 4 4 3 3 3 3 3 3 2 2 2 3 5 10 13 19 39 100 100 100 100 91 100 99 100 100 100 100 92 84 92 88 90 96 100 98 100 100 100 100 99
8 8 8 7 6 4 3 3 3 3 2 2 2 2 2 2 2 2 3 4 6 10 15 32 58 100 100 91 100 100 100 100 95 100 100 100 100 99 97 100 100 100 100 100 100 100 100 100 100
6 6 5 4 3 3 2 2 2 2 1 2 1 2 2 2 2 2 3 4 8 11 15 55 84 100 100 96 100 100 82 98 100 100 100 100 100 100 100 100 95 100 100 100 100 100 100 100 100
5 4 3 2 2 2 2 1 1 1 1 1 1 1 1 1 1 2 3 5 9 12 22 49 100 100 100 100 100 100 100 100 100 100 100 100 100 100 100 92 94 96 100 100 100 100 99 98 96
4 4 3 2 1 1 1 1 1 1 1 1 1 1 1 1 2 2 3 6 10 13 61 100 100 100 100 100 100 100 100 100 100 100 100 100 100 100 100 98 76 77 100 100 100 99 100 100 100
3 2 2 1 1 1 1 1 1 1 1 1 1 1 1 1 2 2 4 7 9 14 100 100 100 96 100 100 94 100 100 100 100 100 100 100 96 92 81 68 49 54 100 100 100 100 100 100 100
2 2 1 1 1 1 1 1 1 1 1 1 1 1 1 1 2 3 4 6 7 15 83 98 100 100 100 100 98 73 100 100 100 100 100 99 96 89 64 68 44 79 100 100 100 100 100 100 100
2 2 2 2 1 1 1 1 1 1 1 1 1 1 1 1 2 3 5 6 8 19 100 100 100 100 100 100 100 99 100 99 100 100 100 95 100 96 72 49 36 96 100 100 100 100 100 100 100
2 2 2 2 2 2 2 2 2 2 1 1 1 1 1 2 3 3 6 7 10 22 100 100 100 100 100 100 100 99 99 100 98 100 100 91 98 84 77 56 49 97 100 100 100 100 100 100 100
2 2 2 2 2 3 3 3 2 2 2 2 2 2 2 3 4 5 10 13 22 70 100 100 100 100 100 100 100 100 100 100 83 100 100 100 98 90 84 71 86 100 100 100 100 100 100 100 100
2 2 3 3 3 3 2 2 3 3 3 2 2 3 3 4 5 9 15 20 100 100 100 100 100 100 100 100 100 100 100 100 100 100 100 100 100 100 93 76 86 100 99 100 100 100 100 100 100
4 5 4 4 3 3 4 3 4 4 3 4 4 4 4 6 8 14 20 72 100 100 100 100 100 100 100 100 100 100 100 100 96 91 100 100 100 99 71 95 85 93 100 100 100 100 100 100 100
6 6 6 5 5 5 4 4 4 4 4 5 6 5 6 6 14 16 50 100 100 100 100 100 100 100 100 100 100 100 100 100 100 100 100 100 100 98 93 90 91 66 100 100 100 100 100 100 100
7 8 12 9 6 6 6 6 6 6 7 8 8 9 10 13 15 20 100 100 100 100 100 100 100 100 100 100 100 100 100 100 100 100 100 100 100 97 100 100 99 82 100 100 100 100 100 100 100

GFSSGP_250_rhum_123.txt.gz
RH
61 42 44 47 44 50 69 55 28 19 21 14 16 22 21 18 17 15 15 27 54 40 53 60 62 70 66 56 56 60 56 54 51 76 97 68 58 85 98 94 92 81 70 68 66 66 54 51 34
50 48 41 40 41 45 78 70 63 41 28 18 15 15 15 17 17 15 15 18 28 26 19 53 54 61 71 69 60 65 63 63 56 54 77 92 76 73 84 71 72 65 64 74 63 60 49 41 32
46 44 36 34 32 48 48 46 60 63 38 36 20 15 13 16 21 19 16 18 23 27 18 19 51 66 64 67 67 63 66 66 63 56 57 51 55 57 59 63 61 56 67 67 56 48 41 34 31
39 38 33 32 38 39 40 43 40 52 60 65 39 20 13 13 18 19 20 18 20 23 22 18 24 57 66 62 67 62 67 70 69 68 60 59 56 49 44 40 40 40 49 48 48 45 38 34 33
35 31 26 26 30 38 37 37 34 38 46 68 56 52 22 11 12 14 19 21 18 18 21 20 22 59 100 96 67 66 64 75 79 73 70 66 67 62 54 51 42 39 41 40 39 36 36 39 37
36 31 23 26 25 26 29 33 30 32 34 49 78 66 42 18 13 10 15 32 42 22 25 21 18 74 74 96 78 71 62 68 84 83 76 74 71 66 59 62 57 55 46 47 43 36 38 39 42
38 30 26 23 24 33 25 23 24 27 26 36 50 72 77 30 28 12 11 28 30 43 26 17 18 19 69 49 86 67 70 61 83 93 86 82 72 76 66 66 60 61 56 50 51 47 48 50 48
36 24 26 22 26 24 21 16 16 22 25 24 39 50 68 64 53 36 15 13 36 58 82 19 16 17 20 29 62 93 80 67 67 91 96 91 81 79 78 63 60 64 59 50 54 55 53 54 59
36 28 24 24 17 21 18 16 15 14 16 23 28 42 51 59 60 57 38 11 16 76 79 98 27 16 15 25 86 100 81 68 69 90 96 98 95 81 75 71 68 66 62 52 53 54 54 60 64
49 39 29 23 18 16 16 14 13 11 14 18 24 27 32 43 50 54 55 23 14 26 96 92 99 43 16 14 31 61 64 76 83 91 99 100 100 95 80 82 79 67 68 60 56 64 67 70 66
54 51 34 31 19 15 12 12 9 11 11 14 24 25 24 34 39 46 55 46 32 25 47 91 97 100 62 20 16 17 19 58 91 91 100 100 100 98 93 84 73 69 73 66 65 85 82 69 68
60 48 45 40 24 15 12 11 9 8 12 10 14 19 28 26 26 36 40 50 55 22 13 69 74 98 100 57 21 14 16 30 62 94 90 99 100 100 100 95 88 76 76 78 64 74 86 89 93
52 52 45 38 28 17 10 9 8 8 8 9 13 14 22 22 24 26 36 46 50 33 19 43 63 75 100 96 50 21 19 18 35 69 96 94 100 100 100 100 98 95 94 96 86 68 62 82 96
46 45 43 38 27 14 8 7 6 13 19 10 10 14 14 16 22 22 25 37 41 36 19 11 59 74 98 100 49 18 30 40 49 60 94 98 99 97 100 100 98 94 100 98 96 89 93 89 96
44 47 31 36 14 12 5 8 8 8 12 10 10 10 11 14 18 19 18 26 38 32 16 17 21 90 83 52 56 100 85 100 92 92 100 100 100 94 84 93 100 100 100 100 93 99 100 100 100
43 27 20 18 6 8 4 11 13 11 9 11 8 10 12 12 11 12 14 15 24 21 17 8 10 38 66 34 100 100 100 100 96 80 100 100 100 100 91 96 99 100 100 100 100 100 100 100 100
25 23 15 15 7 6 4 7 12 8 7 7 8 9 9 8 9 10 11 12 14 12 8 6 9 39 62 100 100 100 100 94 100 100 100 100 100 100 100 100 100 100 100 100 100 100 96 95 99
17 13 9 9 5 6 6 5 7 7 5 4 4 5 5 6 6 7 8 8 9 8 7 5 7 27 92 87 100 98 100 76 71 75 97 100 100 100 100 100 100 100 100 100 100 100 100 100 100
9 9 8 6 5 7 6 4 4 3 3 3 3 3 3 4 5 5 5 6 6 6 5 4 7 18 98 100 100 91 100 100 100 100 100 100 100 100 100 100 100 100 100 100 100 100 90 76 89
5 4 4 6 4 3 3 3 2 2 3 2 2 2 3 3 3 3 3 4 4 4 4 5 7 14 80 100 100 99 89 100 99 100 98 100 100 100 100 100 100 100 100 100 100 88 83 87 82
4 4 3 3 3 3 3 2 2 2 2 2 2 2 2 2 2 2 2 3 3 2 4 4 8 11 71 100 100 100 100 100 100 100 96 98 100 100 100 100 100 100 100 96 100 94 88 83 91
4 4 4 3 3 3 2 2 2 2 1 1 1 1 1 1 2 2 2 2 2 3 3 6 12 12 20 66 100 100 99 100 100 100 100 94 100 100 100 100 100 100 98 100 100 100 85 69 88
6 6 4 3 3 3 2 2 1 1 1 1 1 1 1 1 1 1 2 2 2 4 6 10 12 14 21 72 100 100 100 100 100 84 100 100 100 100 100 100 100 100 100 100 92 70 61 66 100
5 4 3 3 2 2 2 2 1 1 1 1 1 1 1 1 1 1 1 2 3 4 7 9 12 17 31 93 100 100 100 100 94 98 100 100 100 100 100 100 100 98 100 100 75 64 59 89 100
3 3 2 2 2 2 1 1 1 1 1 1 1 1 1 1 1 1 1 2 3 5 8 10 15 23 89 100 100 100 100 100 100 100 100 100 100 100 100 100 100 100 95 86 46 48 92 100 100
2 2 2 2 2 1 2 2 2 2 2 1 1 1 1 1 1 1 2 3 5 7 9 11 19 44 92 100 100 100 100 100 100 100 96 100 100 100 100 100 99 97 84 79 80 74 100 100 100
2 2 2 2 2 2 2 2 2 2 2 2 2 2 2 1 2 2 2 4 6 7 11 18 46 100 100 100 100 100 100 100 100 100 100 100 100 100 100 91 77 99 100 86 97 99 100 100 100
2 3 3 4 3 3 3 3 3 3 2 2 2 2 2 2 2 2 4 5 7 12 20 81 100 100 100 100 100 100 100 100 96 95 97 100 100 99 100 96 98 87 100 100 100 100 100 100 100
3 5 5 5 4 4 4 4 4 4 3 3 2 2 2 2 3 4 5 6 12 48 100 100 100 100 100 100 100 100 100 100 100 100 91 100 97 96 100 100 100 100 100 100 100 100 100 100 100
8 6 6 6 5 5 5 5 5 4 4 4 3 4 4 4 5 7 11 16 34 100 100 100 100 100 100 100 100 100 100 100 99 100 93 89 88 100 100 100 100 100 98 100 100 100 100 100 100